Wetterdaten: Donnerstag, 09.10.2014
Datum Zeit Temp. Aussen +5cm Feuchte Auss Luftdruck Regen Sonnenschein Regendauer Solar Windben
09.10.2014 00:00 15,7 C 13,9 C 97 % 1001,0 hPa 0,0 l/m 0 min 2 min 0 W/m 16,7 km/h (3 Bft)
09.10.2014 00:02 15,6 C 13,9 C 97 % 1001,0 hPa 0,0 l/m 0 min 2 min 0 W/m 20,9 km/h (4 Bft)
09.10.2014 00:05 15,6 C 13,9 C 97 % 1001,0 hPa 0,2 l/m 0 min 2 min 0 W/m 29,3 km/h (5 Bft)
09.10.2014 00:06 15,6 C 13,9 C 97 % 1001,0 hPa 0,2 l/m 0 min 1 min 0 W/m 29,3 km/h (5 Bft)
09.10.2014 00:08 15,6 C 13,9 C 97 % 1001,0 hPa 0,0 l/m 0 min 2 min 0 W/m 25,1 km/h (4 Bft)
09.10.2014 00:10 15,6 C 13,9 C 97 % 1001,0 hPa 0,0 l/m 0 min 2 min 0 W/m 18,8 km/h (3 Bft)
09.10.2014 00:12 15,6 C 13,9 C 97 % 1001,0 hPa 0,0 l/m 0 min 2 min 0 W/m 18,8 km/h (3 Bft)
09.10.2014 00:14 15,6 C 13,9 C 97 % 1000,9 hPa 0,0 l/m 0 min 2 min 0 W/m 29,3 km/h (5 Bft)
09.10.2014 00:16 15,6 C 13,9 C 97 % 1000,9 hPa 0,0 l/m 0 min 2 min 0 W/m 20,9 km/h (4 Bft)
09.10.2014 00:18 15,6 C 13,9 C 97 % 1001,0 hPa 0,2 l/m 0 min 2 min 0 W/m 27,2 km/h (4 Bft)
09.10.2014 00:20 15,6 C 13,9 C 97 % 1001,0 hPa 0,0 l/m 0 min 2 min 0 W/m 25,1 km/h (4 Bft)
09.10.2014 00:22 15,5 C 13,9 C 97 % 1000,9 hPa 0,0 l/m 0 min 2 min 0 W/m 27,2 km/h (4 Bft)
09.10.2014 00:24 15,5 C 13,9 C 97 % 1000,9 hPa 0,2 l/m 0 min 2 min 0 W/m 23,0 km/h (4 Bft)
09.10.2014 00:26 15,4 C 13,9 C 97 % 1001,0 hPa 0,0 l/m 0 min 2 min 0 W/m 20,9 km/h (4 Bft)
09.10.2014 00:28 15,4 C 13,9 C 97 % 1001,0 hPa 0,0 l/m 0 min 2 min 0 W/m 14,6 km/h (3 Bft)
09.10.2014 00:30 15,4 C 13,9 C 97 % 1001,0 hPa 0,2 l/m 0 min 2 min 0 W/m 25,1 km/h (4 Bft)
09.10.2014 00:32 15,4 C 13,9 C 97 % 1001,0 hPa 0,0 l/m 0 min 2 min 0 W/m 20,9 km/h (4 Bft)
09.10.2014 00:34 15,4 C 13,9 C 97 % 1000,9 hPa 0,0 l/m 0 min 2 min 0 W/m 16,7 km/h (3 Bft)
09.10.2014 00:36 15,4 C 13,9 C 97 % 1000,9 hPa 0,2 l/m 0 min 2 min 0 W/m 25,1 km/h (4 Bft)
09.10.2014 00:38 15,4 C 13,9 C 97 % 1000,8 hPa 0,0 l/m 0 min 2 min 0 W/m 14,6 km/h (3 Bft)
09.10.2014 00:40 15,4 C 13,9 C 97 % 1000,8 hPa 0,0 l/m 0 min 2 min 0 W/m 12,6 km/h (3 Bft)
09.10.2014 00:42 15,4 C 13,9 C 97 % 1000,8 hPa 0,0 l/m 0 min 2 min 0 W/m 20,9 km/h (4 Bft)
09.10.2014 00:44 15,4 C 13,9 C 97 % 1000,8 hPa 0,0 l/m 0 min 2 min 0 W/m 27,2 km/h (4 Bft)
09.10.2014 00:46 15,4 C 13,9 C 97 % 1000,7 hPa 0,0 l/m 0 min 2 min 0 W/m 18,8 km/h (3 Bft)
09.10.2014 00:48 15,4 C 13,9 C 97 % 1000,7 hPa 0,0 l/m 0 min 2 min 0 W/m 12,6 km/h (3 Bft)
09.10.2014 00:50 15,4 C 13,9 C 97 % 1000,7 hPa 0,2 l/m 0 min 2 min 0 W/m 12,6 km/h (3 Bft)
09.10.2014 00:52 15,4 C 13,9 C 97 % 1000,7 hPa 0,0 l/m 0 min 2 min 0 W/m 10,5 km/h (2 Bft)
09.10.2014 00:54 15,4 C 13,9 C 97 % 1000,7 hPa 0,0 l/m 0 min 2 min 0 W/m 12,6 km/h (3 Bft)
09.10.2014 00:56 15,4 C 13,9 C 97 % 1000,7 hPa 0,0 l/m 0 min 2 min 0 W/m 12,6 km/h (3 Bft)
09.10.2014 00:58 15,4 C 13,9 C 97 % 1000,7 hPa 0,0 l/m 0 min 2 min 0 W/m 14,6 km/h (3 Bft)
09.10.2014 01:00 15,4 C 13,9 C 97 % 1000,7 hPa 0,0 l/m 0 min 0 min 0 W/m 12,6 km/h (3 Bft)
09.10.2014 01:02 15,4 C 13,9 C 98 % 1000,7 hPa 0,0 l/m 0 min 0 min 0 W/m 12,6 km/h (3 Bft)
09.10.2014 01:04 15,4 C 13,9 C 98 % 1000,7 hPa 0,0 l/m 0 min 0 min 0 W/m 10,5 km/h (2 Bft)
09.10.2014 01:06 15,4 C 13,9 C 98 % 1000,6 hPa 0,0 l/m 0 min 2 min 0 W/m 12,6 km/h (3 Bft)
09.10.2014 01:08 15,4 C 13,9 C 98 % 1000,7 hPa 0,0 l/m 0 min 2 min 0 W/m 18,8 km/h (3 Bft)
09.10.2014 01:10 15,4 C 13,9 C 98 % 1000,6 hPa 0,0 l/m 0 min 2 min 0 W/m 18,8 km/h (3 Bft)
09.10.2014 01:12 15,4 C 13,9 C 98 % 1000,7 hPa 0,0 l/m 0 min 2 min 0 W/m 16,7 km/h (3 Bft)
09.10.2014 01:14 15,4 C 13,9 C 98 % 1000,7 hPa 0,0 l/m 0 min 2 min 0 W/m 18,8 km/h (3 Bft)
09.10.2014 01:16 15,4 C 13,9 C 98 % 1000,8 hPa 0,0 l/m 0 min 2 min 0 W/m 18,8 km/h (3 Bft)
09.10.2014 01:18 15,5 C 13,9 C 98 % 1000,8 hPa 0,2 l/m 0 min 2 min 0 W/m 12,6 km/h (3 Bft)
09.10.2014 01:20 15,5 C 13,9 C 98 % 1000,8 hPa 0,0 l/m 0 min 2 min 0 W/m 18,8 km/h (3 Bft)
09.10.2014 01:22 15,5 C 13,9 C 98 % 1000,7 hPa 0,0 l/m 0 min 2 min 0 W/m 16,7 km/h (3 Bft)
09.10.2014 01:24 15,6 C 13,9 C 98 % 1000,7 hPa 0,0 l/m 0 min 2 min 0 W/m 20,9 km/h (4 Bft)
09.10.2014 01:26 15,6 C 13,9 C 98 % 1000,9 hPa 0,0 l/m 0 min 2 min 0 W/m 20,9 km/h (4 Bft)
09.10.2014 01:28 15,6 C 13,9 C 98 % 1001,0 hPa 0,0 l/m 0 min 2 min 0 W/m 14,6 km/h (3 Bft)
09.10.2014 01:30 15,6 C 13,9 C 98 % 1000,9 hPa 0,0 l/m 0 min 2 min 0 W/m 12,6 km/h (3 Bft)
09.10.2014 01:32 15,6 C 13,9 C 98 % 1000,8 hPa 0,0 l/m 0 min 0 min 0 W/m 20,9 km/h (4 Bft)
09.10.2014 01:34 15,6 C 13,9 C 98 % 1000,8 hPa 0,0 l/m 0 min 0 min 0 W/m 23,0 km/h (4 Bft)
09.10.2014 01:36 15,6 C 13,9 C 98 % 1000,8 hPa 0,0 l/m 0 min 0 min 0 W/m 27,2 km/h (4 Bft)
09.10.2014 01:38 15,6 C 13,9 C 98 % 1000,7 hPa 0,0 l/m 0 min 0 min 0 W/m 18,8 km/h (3 Bft)
09.10.2014 01:40 15,6 C 13,9 C 98 % 1000,8 hPa 0,0 l/m 0 min 0 min 0 W/m 18,8 km/h (3 Bft)
09.10.2014 01:42 15,6 C 13,9 C 98 % 1000,8 hPa 0,0 l/m 0 min 0 min 0 W/m 14,6 km/h (3 Bft)
09.10.2014 01:44 15,6 C 13,9 C 98 % 1000,9 hPa 0,0 l/m 0 min 0 min 0 W/m 14,6 km/h (3 Bft)
09.10.2014 01:46 15,6 C 13,9 C 98 % 1000,9 hPa 0,0 l/m 0 min 0 min 0 W/m 16,7 km/h (3 Bft)
09.10.2014 01:48 15,6 C 13,9 C 98 % 1001,1 hPa 0,0 l/m 0 min 0 min 0 W/m 16,7 km/h (3 Bft)
09.10.2014 01:50 15,6 C 13,9 C 98 % 1001,2 hPa 0,0 l/m 0 min 0 min 0 W/m 14,6 km/h (3 Bft)
09.10.2014 01:52 15,6 C 13,9 C 98 % 1001,1 hPa 0,0 l/m 0 min 0 min 0 W/m 16,7 km/h (3 Bft)
09.10.2014 01:54 15,6 C 13,9 C 98 % 1001,1 hPa 0,0 l/m 0 min 0 min 0 W/m 10,5 km/h (2 Bft)
09.10.2014 01:56 15,6 C 13,9 C 98 % 1001,1 hPa 0,0 l/m 0 min 0 min 0 W/m 8,4 km/h (2 Bft)
09.10.2014 01:58 15,6 C 13,9 C 98 % 1001,0 hPa 0,0 l/m 0 min 0 min 0 W/m 14,6 km/h (3 Bft)
09.10.2014 02:00 15,6 C 13,9 C 98 % 1001,1 hPa 0,0 l/m 0 min 0 min 0 W/m 16,7 km/h (3 Bft)
09.10.2014 02:02 15,6 C 13,9 C 98 % 1001,1 hPa 0,0 l/m 0 min 0 min 0 W/m 14,6 km/h (3 Bft)
09.10.2014 02:04 15,6 C 13,9 C 98 % 1001,1 hPa 0,0 l/m 0 min 0 min 0 W/m 10,5 km/h (2 Bft)
09.10.2014 02:06 15,6 C 13,9 C 98 % 1001,0 hPa 0,0 l/m 0 min 0 min 0 W/m 18,8 km/h (3 Bft)
09.10.2014 02:08 15,6 C 13,9 C 98 % 1001,0 hPa 0,0 l/m 0 min 0 min 0 W/m 14,6 km/h (3 Bft)
09.10.2014 02:10 15,6 C 13,9 C 98 % 1001,0 hPa 0,0 l/m 0 min 0 min 0 W/m 10,5 km/h (2 Bft)
09.10.2014 02:12 15,6 C 13,9 C 98 % 1001,2 hPa 0,0 l/m 0 min 0 min 0 W/m 14,6 km/h (3 Bft)
09.10.2014 02:14 15,6 C 13,9 C 98 % 1001,1 hPa 0,0 l/m 0 min 0 min 0 W/m 12,6 km/h (3 Bft)
09.10.2014 02:16 15,6 C 13,9 C 98 % 1001,2 hPa 0,0 l/m 0 min 0 min 0 W/m 10,5 km/h (2 Bft)
09.10.2014 02:18 15,6 C 13,9 C 98 % 1001,2 hPa 0,0 l/m 0 min 0 min 0 W/m 10,5 km/h (2 Bft)
09.10.2014 02:20 15,6 C 13,9 C 98 % 1001,2 hPa 0,0 l/m 0 min 0 min 0 W/m 12,6 km/h (3 Bft)
09.10.2014 02:22 15,6 C 13,9 C 98 % 1001,2 hPa 0,0 l/m 0 min 0 min 0 W/m 8,4 km/h (2 Bft)
09.10.2014 02:24 15,6 C 13,9 C 98 % 1001,2 hPa 0,0 l/m 0 min 0 min 0 W/m 6,3 km/h (2 Bft)
09.10.2014 02:26 15,6 C 13,9 C 98 % 1001,2 hPa 0,0 l/m 0 min 0 min 0 W/m 10,5 km/h (2 Bft)
09.10.2014 02:28 15,6 C 13,9 C 98 % 1001,2 hPa 0,0 l/m 0 min 0 min 0 W/m 12,6 km/h (3 Bft)
09.10.2014 02:30 15,6 C 13,9 C 98 % 1001,3 hPa 0,0 l/m 0 min 0 min 0 W/m 8,4 km/h (2 Bft)
09.10.2014 02:32 15,6 C 13,9 C 98 % 1001,2 hPa 0,0 l/m 0 min 0 min 0 W/m 8,4 km/h (2 Bft)
09.10.2014 02:34 15,6 C 13,9 C 98 % 1001,1 hPa 0,0 l/m 0 min 0 min 0 W/m 10,5 km/h (2 Bft)
09.10.2014 02:36 15,6 C 13,9 C 98 % 1001,1 hPa 0,0 l/m 0 min 0 min 0 W/m 10,5 km/h (2 Bft)
09.10.2014 02:38 15,6 C 13,9 C 98 % 1001,1 hPa 0,0 l/m 0 min 0 min 0 W/m 10,5 km/h (2 Bft)
09.10.2014 02:40 15,6 C 13,9 C 98 % 1001,2 hPa 0,0 l/m 0 min 0 min 0 W/m 12,6 km/h (3 Bft)
09.10.2014 02:42 15,6 C 13,9 C 98 % 1001,2 hPa 0,0 l/m 0 min 0 min 0 W/m 14,6 km/h (3 Bft)
09.10.2014 02:44 15,6 C 13,9 C 98 % 1001,2 hPa 0,0 l/m 0 min 0 min 0 W/m 16,7 km/h (3 Bft)
09.10.2014 02:46 15,6 C 13,9 C 98 % 1001,3 hPa 0,0 l/m 0 min 0 min 0 W/m 12,6 km/h (3 Bft)
09.10.2014 02:48 15,6 C 13,9 C 98 % 1001,3 hPa 0,0 l/m 0 min 0 min 0 W/m 16,7 km/h (3 Bft)
09.10.2014 02:50 15,6 C 13,9 C 98 % 1001,3 hPa 0,0 l/m 0 min 0 min 0 W/m 12,6 km/h (3 Bft)
09.10.2014 02:52 15,6 C 13,9 C 98 % 1001,2 hPa 0,0 l/m 0 min 0 min 0 W/m 12,6 km/h (3 Bft)
09.10.2014 02:54 15,6 C 13,9 C 98 % 1001,2 hPa 0,0 l/m 0 min 0 min 0 W/m 12,6 km/h (3 Bft)
09.10.2014 02:56 15,6 C 13,9 C 98 % 1001,1 hPa 0,0 l/m 0 min 0 min 0 W/m 16,7 km/h (3 Bft)
09.10.2014 02:58 15,7 C 13,9 C 98 % 1001,2 hPa 0,0 l/m 0 min 0 min 0 W/m 14,6 km/h (3 Bft)
09.10.2014 03:00 15,7 C 14,4 C 98 % 1001,2 hPa 0,0 l/m 0 min 0 min 0 W/m 14,6 km/h (3 Bft)
09.10.2014 03:02 15,7 C 14,4 C 98 % 1001,3 hPa 0,0 l/m 0 min 0 min 0 W/m 25,1 km/h (4 Bft)
09.10.2014 03:04 15,7 C 14,4 C 98 % 1001,2 hPa 0,0 l/m 0 min 0 min 0 W/m 16,7 km/h (3 Bft)
09.10.2014 03:06 15,7 C 14,4 C 98 % 1001,2 hPa 0,0 l/m 0 min 0 min 0 W/m 10,5 km/h (2 Bft)
09.10.2014 03:08 15,7 C 14,4 C 98 % 1001,2 hPa 0,0 l/m 0 min 0 min 0 W/m 16,7 km/h (3 Bft)
09.10.2014 03:10 15,8 C 14,4 C 98 % 1001,3 hPa 0,0 l/m 0 min 0 min 0 W/m 14,6 km/h (3 Bft)
09.10.2014 03:12 15,8 C 14,4 C 98 % 1001,4 hPa 0,0 l/m 0 min 2 min 0 W/m 18,8 km/h (3 Bft)
09.10.2014 03:14 15,8 C 14,4 C 98 % 1001,4 hPa 0,0 l/m 0 min 0 min 0 W/m 14,6 km/h (3 Bft)
09.10.2014 03:16 15,8 C 14,4 C 98 % 1001,3 hPa 0,0 l/m 0 min 2 min 0 W/m 14,6 km/h (3 Bft)
09.10.2014 03:18 15,8 C 14,4 C 98 % 1001,4 hPa 0,0 l/m 0 min 0 min 0 W/m 18,8 km/h (3 Bft)
09.10.2014 03:20 15,8 C 14,4 C 98 % 1001,4 hPa 0,0 l/m 0 min 0 min 0 W/m 16,7 km/h (3 Bft)
09.10.2014 03:22 15,8 C 14,4 C 98 % 1001,5 hPa 0,0 l/m 0 min 0 min 0 W/m 16,7 km/h (3 Bft)
09.10.2014 03:24 15,8 C 14,4 C 98 % 1001,5 hPa 0,0 l/m 0 min 0 min 0 W/m 23,0 km/h (4 Bft)
09.10.2014 03:26 15,8 C 14,4 C 98 % 1001,5 hPa 0,0 l/m 0 min 0 min 0 W/m 20,9 km/h (4 Bft)
09.10.2014 03:28 15,8 C 14,4 C 98 % 1001,5 hPa 0,0 l/m 0 min 0 min 0 W/m 14,6 km/h (3 Bft)
09.10.2014 03:30 15,8 C 14,4 C 98 % 1001,5 hPa 0,0 l/m 0 min 0 min 0 W/m 10,5 km/h (2 Bft)
09.10.2014 03:32 15,8 C 14,4 C 98 % 1001,4 hPa 0,0 l/m 0 min 0 min 0 W/m 12,6 km/h (3 Bft)
09.10.2014 03:34 15,8 C 14,4 C 98 % 1001,4 hPa 0,0 l/m 0 min 0 min 0 W/m 16,7 km/h (3 Bft)
09.10.2014 03:36 15,8 C 14,4 C 98 % 1001,5 hPa 0,0 l/m 0 min 0 min 0 W/m 14,6 km/h (3 Bft)
09.10.2014 03:38 15,8 C 14,4 C 98 % 1001,6 hPa 0,0 l/m 0 min 0 min 0 W/m 16,7 km/h (3 Bft)
09.10.2014 03:40 15,8 C 14,4 C 98 % 1001,7 hPa 0,0 l/m 0 min 0 min 0 W/m 23,0 km/h (4 Bft)
09.10.2014 03:42 15,8 C 14,4 C 98 % 1001,6 hPa 0,0 l/m 0 min 0 min 0 W/m 27,2 km/h (4 Bft)
09.10.2014 03:44 15,8 C 14,4 C 98 % 1001,6 hPa 0,0 l/m 0 min 0 min 0 W/m 29,3 km/h (5 Bft)
09.10.2014 03:46 15,8 C 14,4 C 98 % 1001,6 hPa 0,0 l/m 0 min 2 min 0 W/m 29,3 km/h (5 Bft)
09.10.2014 03:48 15,8 C 14,4 C 99 % 1001,8 hPa 0,2 l/m 0 min 2 min 0 W/m 37,7 km/h (5 Bft)
09.10.2014 03:50 15,8 C 14,4 C 99 % 1001,7 hPa 0,0 l/m 0 min 2 min 0 W/m 18,8 km/h (3 Bft)
09.10.2014 03:52 15,8 C 14,4 C 98 % 1001,7 hPa 0,0 l/m 0 min 2 min 0 W/m 14,6 km/h (3 Bft)
09.10.2014 03:54 15,8 C 14,4 C 98 % 1001,7 hPa 0,0 l/m 0 min 0 min 0 W/m 16,7 km/h (3 Bft)
09.10.2014 03:56 15,8 C 13,9 C 99 % 1001,7 hPa 0,0 l/m 0 min 0 min 0 W/m 18,8 km/h (3 Bft)
09.10.2014 03:58 15,8 C 13,9 C 98 % 1001,8 hPa 0,0 l/m 0 min 0 min 0 W/m 20,9 km/h (4 Bft)
09.10.2014 04:00 15,8 C 13,9 C 98 % 1001,8 hPa 0,0 l/m 0 min 0 min 0 W/m 16,7 km/h (3 Bft)
09.10.2014 04:02 15,7 C 13,9 C 98 % 1001,9 hPa 0,0 l/m 0 min 0 min 0 W/m 16,7 km/h (3 Bft)
09.10.2014 04:04 15,7 C 13,9 C 98 % 1001,9 hPa 0,0 l/m 0 min 0 min 0 W/m 14,6 km/h (3 Bft)
09.10.2014 04:06 15,7 C 13,9 C 98 % 1001,9 hPa 0,0 l/m 0 min 0 min 0 W/m 14,6 km/h (3 Bft)
09.10.2014 04:08 15,7 C 13,9 C 98 % 1002,0 hPa 0,0 l/m 0 min 0 min 0 W/m 12,6 km/h (3 Bft)
09.10.2014 04:10 15,7 C 13,9 C 98 % 1002,0 hPa 0,0 l/m 0 min 0 min 0 W/m 16,7 km/h (3 Bft)
09.10.2014 04:12 15,7 C 13,9 C 98 % 1002,1 hPa 0,0 l/m 0 min 0 min 0 W/m 14,6 km/h (3 Bft)
09.10.2014 04:14 15,7 C 13,9 C 98 % 1002,1 hPa 0,0 l/m 0 min 0 min 0 W/m 12,6 km/h (3 Bft)
09.10.2014 04:16 15,7 C 13,9 C 98 % 1002,1 hPa 0,0 l/m 0 min 0 min 0 W/m 16,7 km/h (3 Bft)
09.10.2014 04:18 15,7 C 13,9 C 98 % 1002,2 hPa 0,0 l/m 0 min 0 min 0 W/m 18,8 km/h (3 Bft)
09.10.2014 04:20 15,7 C 13,9 C 98 % 1002,2 hPa 0,0 l/m 0 min 0 min 0 W/m 16,7 km/h (3 Bft)
09.10.2014 04:22 15,7 C 13,9 C 98 % 1002,3 hPa 0,0 l/m 0 min 0 min 0 W/m 18,8 km/h (3 Bft)
09.10.2014 04:24 15,7 C 13,9 C 98 % 1002,2 hPa 0,0 l/m 0 min 0 min 0 W/m 18,8 km/h (3 Bft)
09.10.2014 04:26 15,7 C 13,9 C 98 % 1002,2 hPa 0,0 l/m 0 min 0 min 0 W/m 14,6 km/h (3 Bft)
09.10.2014 04:28 15,7 C 13,9 C 98 % 1002,2 hPa 0,0 l/m 0 min 0 min 0 W/m 8,4 km/h (2 Bft)
09.10.2014 04:30 15,7 C 13,9 C 98 % 1002,2 hPa 0,0 l/m 0 min 0 min 0 W/m 14,6 km/h (3 Bft)
09.10.2014 04:32 15,7 C 13,9 C 98 % 1002,2 hPa 0,0 l/m 0 min 0 min 0 W/m 12,6 km/h (3 Bft)
09.10.2014 04:34 15,7 C 13,9 C 98 % 1002,2 hPa 0,0 l/m 0 min 0 min 0 W/m 18,8 km/h (3 Bft)
09.10.2014 04:36 15,7 C 13,9 C 98 % 1002,2 hPa 0,0 l/m 0 min 0 min 0 W/m 8,4 km/h (2 Bft)
09.10.2014 04:38 15,6 C 13,9 C 98 % 1002,2 hPa 0,0 l/m 0 min 0 min 0 W/m 10,5 km/h (2 Bft)
09.10.2014 04:40 15,6 C 13,9 C 98 % 1002,2 hPa 0,0 l/m 0 min 0 min 0 W/m 14,6 km/h (3 Bft)
09.10.2014 04:42 15,6 C 13,9 C 98 % 1002,2 hPa 0,0 l/m 0 min 0 min 0 W/m 8,4 km/h (2 Bft)
09.10.2014 04:44 15,6 C 13,9 C 98 % 1002,2 hPa 0,0 l/m 0 min 0 min 0 W/m 12,6 km/h (3 Bft)
09.10.2014 04:46 15,6 C 13,9 C 98 % 1002,3 hPa 0,0 l/m 0 min 0 min 0 W/m 14,6 km/h (3 Bft)
09.10.2014 04:48 15,6 C 13,9 C 98 % 1002,2 hPa 0,0 l/m 0 min 0 min 0 W/m 10,5 km/h (2 Bft)
09.10.2014 04:50 15,6 C 13,9 C 98 % 1002,2 hPa 0,0 l/m 0 min 0 min 0 W/m 14,6 km/h (3 Bft)
09.10.2014 04:52 15,6 C 13,9 C 98 % 1002,2 hPa 0,0 l/m 0 min 0 min 0 W/m 12,6 km/h (3 Bft)
09.10.2014 04:54 15,5 C 13,9 C 98 % 1002,3 hPa 0,0 l/m 0 min 0 min 0 W/m 20,9 km/h (4 Bft)
09.10.2014 04:56 15,5 C 13,9 C 98 % 1002,3 hPa 0,0 l/m 0 min 0 min 0 W/m 18,8 km/h (3 Bft)
09.10.2014 04:58 15,5 C 13,9 C 98 % 1002,3 hPa 0,0 l/m 0 min 0 min 0 W/m 18,8 km/h (3 Bft)
09.10.2014 05:00 15,5 C 13,9 C 98 % 1002,4 hPa 0,0 l/m 0 min 0 min 0 W/m 14,6 km/h (3 Bft)
09.10.2014 05:02 15,4 C 13,9 C 98 % 1002,4 hPa 0,0 l/m 0 min 0 min 0 W/m 14,6 km/h (3 Bft)
09.10.2014 05:04 15,4 C 13,9 C 98 % 1002,4 hPa 0,0 l/m 0 min 0 min 0 W/m 14,6 km/h (3 Bft)
09.10.2014 05:06 15,4 C 13,9 C 98 % 1002,4 hPa 0,0 l/m 0 min 0 min 0 W/m 12,6 km/h (3 Bft)
09.10.2014 05:08 15,4 C 13,9 C 98 % 1002,4 hPa 0,0 l/m 0 min 0 min 0 W/m 12,6 km/h (3 Bft)
09.10.2014 05:10 15,4 C 13,9 C 98 % 1002,6 hPa 0,0 l/m 0 min 0 min 0 W/m 10,5 km/h (2 Bft)
09.10.2014 05:12 15,4 C 13,9 C 98 % 1002,6 hPa 0,0 l/m 0 min 0 min 0 W/m 14,6 km/h (3 Bft)
09.10.2014 05:14 15,4 C 13,9 C 98 % 1002,7 hPa 0,0 l/m 0 min 0 min 0 W/m 12,6 km/h (3 Bft)
09.10.2014 05:16 15,4 C 13,9 C 98 % 1002,7 hPa 0,0 l/m 0 min 0 min 0 W/m 12,6 km/h (3 Bft)
09.10.2014 05:18 15,4 C 13,9 C 98 % 1002,7 hPa 0,0 l/m 0 min 0 min 0 W/m 14,6 km/h (3 Bft)
09.10.2014 05:20 15,4 C 13,9 C 98 % 1002,8 hPa 0,0 l/m 0 min 0 min 0 W/m 14,6 km/h (3 Bft)
09.10.2014 05:22 15,4 C 13,9 C 98 % 1002,7 hPa 0,0 l/m 0 min 0 min 0 W/m 10,5 km/h (2 Bft)
09.10.2014 05:24 15,4 C 13,9 C 98 % 1002,8 hPa 0,0 l/m 0 min 0 min 0 W/m 14,6 km/h (3 Bft)
09.10.2014 05:26 15,4 C 13,9 C 98 % 1002,8 hPa 0,0 l/m 0 min 0 min 0 W/m 14,6 km/h (3 Bft)
09.10.2014 05:28 15,4 C 13,9 C 98 % 1002,7 hPa 0,0 l/m 0 min 0 min 0 W/m 10,5 km/h (2 Bft)
09.10.2014 05:30 15,4 C 13,9 C 98 % 1002,8 hPa 0,0 l/m 0 min 0 min 0 W/m 12,6 km/h (3 Bft)
09.10.2014 05:32 15,3 C 13,9 C 97 % 1002,8 hPa 0,0 l/m 0 min 0 min 0 W/m 16,7 km/h (3 Bft)
09.10.2014 05:34 15,3 C 13,9 C 97 % 1002,9 hPa 0,0 l/m 0 min 0 min 0 W/m 8,4 km/h (2 Bft)
09.10.2014 05:36 15,3 C 13,9 C 97 % 1002,9 hPa 0,0 l/m 0 min 0 min 0 W/m 12,6 km/h (3 Bft)
09.10.2014 05:38 15,3 C 13,9 C 97 % 1002,8 hPa 0,0 l/m 0 min 0 min 0 W/m 16,7 km/h (3 Bft)
09.10.2014 05:40 15,3 C 13,9 C 97 % 1002,9 hPa 0,0 l/m 0 min 0 min 0 W/m 12,6 km/h (3 Bft)
09.10.2014 05:42 15,3 C 13,9 C 97 % 1003,0 hPa 0,0 l/m 0 min 0 min 0 W/m 12,6 km/h (3 Bft)
09.10.2014 05:44 15,3 C 13,9 C 97 % 1003,0 hPa 0,0 l/m 0 min 0 min 0 W/m 14,6 km/h (3 Bft)
09.10.2014 05:46 15,3 C 13,9 C 97 % 1003,0 hPa 0,0 l/m 0 min 0 min 0 W/m 14,6 km/h (3 Bft)
09.10.2014 05:48 15,3 C 13,9 C 97 % 1003,1 hPa 0,0 l/m 0 min 0 min 0 W/m 14,6 km/h (3 Bft)
09.10.2014 05:50 15,3 C 13,9 C 97 % 1003,0 hPa 0,0 l/m 0 min 0 min 0 W/m 14,6 km/h (3 Bft)
09.10.2014 05:52 15,3 C 13,9 C 97 % 1003,0 hPa 0,0 l/m 0 min 0 min 0 W/m 12,6 km/h (3 Bft)
09.10.2014 05:54 15,3 C 13,9 C 97 % 1003,2 hPa 0,0 l/m 0 min 0 min 0 W/m 14,6 km/h (3 Bft)
09.10.2014 05:56 15,3 C 13,9 C 97 % 1003,2 hPa 0,0 l/m 0 min 0 min 0 W/m 14,6 km/h (3 Bft)
09.10.2014 05:58 15,3 C 13,9 C 97 % 1003,2 hPa 0,0 l/m 0 min 0 min 0 W/m 16,7 km/h (3 Bft)
09.10.2014 06:00 15,3 C 13,9 C 97 % 1003,2 hPa 0,0 l/m 0 min 0 min 0 W/m 14,6 km/h (3 Bft)
09.10.2014 06:02 15,3 C 13,9 C 97 % 1003,2 hPa 0,0 l/m 0 min 0 min 0 W/m 8,4 km/h (2 Bft)
09.10.2014 06:05 15,3 C 13,9 C 97 % 1003,2 hPa 0,0 l/m 0 min 0 min 0 W/m 12,6 km/h (3 Bft)
09.10.2014 06:06 15,3 C 13,9 C 97 % 1003,2 hPa 0,0 l/m 0 min 0 min 0 W/m 14,6 km/h (3 Bft)
09.10.2014 06:08 15,3 C 13,9 C 97 % 1003,3 hPa 0,0 l/m 0 min 0 min 0 W/m 16,7 km/h (3 Bft)
09.10.2014 06:10 15,3 C 13,9 C 97 % 1003,3 hPa 0,0 l/m 0 min 0 min 0 W/m 12,6 km/h (3 Bft)
09.10.2014 06:12 15,3 C 13,9 C 97 % 1003,2 hPa 0,0 l/m 0 min 0 min 0 W/m 14,6 km/h (3 Bft)
09.10.2014 06:14 15,3 C 13,3 C 97 % 1003,3 hPa 0,0 l/m 0 min 0 min 0 W/m 10,5 km/h (2 Bft)
09.10.2014 06:16 15,3 C 13,3 C 97 % 1003,3 hPa 0,0 l/m 0 min 0 min 0 W/m 8,4 km/h (2 Bft)
09.10.2014 06:18 15,3 C 13,3 C 97 % 1003,3 hPa 0,0 l/m 0 min 0 min 0 W/m 10,5 km/h (2 Bft)
09.10.2014 06:20 15,3 C 13,3 C 97 % 1003,3 hPa 0,0 l/m 0 min 0 min 0 W/m 10,5 km/h (2 Bft)
09.10.2014 06:22 15,3 C 13,3 C 97 % 1003,3 hPa 0,0 l/m 0 min 0 min 0 W/m 10,5 km/h (2 Bft)
09.10.2014 06:24 15,3 C 13,3 C 97 % 1003,4 hPa 0,0 l/m 0 min 0 min 0 W/m 10,5 km/h (2 Bft)
09.10.2014 06:26 15,3 C 13,3 C 97 % 1003,4 hPa 0,0 l/m 0 min 0 min 0 W/m 12,6 km/h (3 Bft)
09.10.2014 06:28 15,2 C 13,3 C 97 % 1003,3 hPa 0,0 l/m 0 min 0 min 0 W/m 8,4 km/h (2 Bft)
09.10.2014 06:30 15,2 C 13,3 C 97 % 1003,3 hPa 0,0 l/m 0 min 0 min 0 W/m 10,5 km/h (2 Bft)
09.10.2014 06:32 15,2 C 13,3 C 97 % 1003,4 hPa 0,0 l/m 0 min 0 min 0 W/m 8,4 km/h (2 Bft)
09.10.2014 06:34 15,2 C 13,3 C 97 % 1003,4 hPa 0,0 l/m 0 min 0 min 0 W/m 14,6 km/h (3 Bft)
09.10.2014 06:36 15,2 C 13,3 C 97 % 1003,5 hPa 0,0 l/m 0 min 0 min 0 W/m 10,5 km/h (2 Bft)
09.10.2014 06:38 15,2 C 13,3 C 97 % 1003,5 hPa 0,0 l/m 0 min 0 min 0 W/m 8,4 km/h (2 Bft)
09.10.2014 06:40 15,2 C 13,3 C 96 % 1003,5 hPa 0,0 l/m 0 min 0 min 0 W/m 8,4 km/h (2 Bft)
09.10.2014 06:42 15,2 C 13,3 C 97 % 1003,5 hPa 0,0 l/m 0 min 0 min 0 W/m 10,5 km/h (2 Bft)
09.10.2014 06:44 15,2 C 13,3 C 97 % 1003,5 hPa 0,0 l/m 0 min 0 min 0 W/m 8,4 km/h (2 Bft)
09.10.2014 06:46 15,2 C 13,3 C 97 % 1003,5 hPa 0,0 l/m 0 min 0 min 0 W/m 10,5 km/h (2 Bft)
09.10.2014 06:48 15,2 C 13,3 C 97 % 1003,5 hPa 0,0 l/m 0 min 0 min 0 W/m 8,4 km/h (2 Bft)
09.10.2014 06:50 15,2 C 13,3 C 96 % 1003,5 hPa 0,0 l/m 0 min 0 min 0 W/m 8,4 km/h (2 Bft)
09.10.2014 06:52 15,2 C 13,3 C 96 % 1003,6 hPa 0,0 l/m 0 min 0 min 0 W/m 8,4 km/h (2 Bft)
09.10.2014 06:54 15,2 C 13,3 C 96 % 1003,5 hPa 0,0 l/m 0 min 0 min 0 W/m 8,4 km/h (2 Bft)
09.10.2014 06:56 15,1 C 13,3 C 96 % 1003,5 hPa 0,0 l/m 0 min 0 min 0 W/m 8,4 km/h (2 Bft)
09.10.2014 06:58 15,1 C 13,3 C 96 % 1003,6 hPa 0,0 l/m 0 min 0 min 0 W/m 10,5 km/h (2 Bft)
09.10.2014 07:00 15,1 C 13,3 C 96 % 1003,6 hPa 0,0 l/m 0 min 0 min 0 W/m 10,5 km/h (2 Bft)
09.10.2014 07:02 15,1 C 13,3 C 96 % 1003,7 hPa 0,0 l/m 0 min 0 min 0 W/m 6,3 km/h (2 Bft)
09.10.2014 07:04 15,1 C 13,3 C 96 % 1003,7 hPa 0,0 l/m 0 min 0 min 0 W/m 8,4 km/h (2 Bft)
09.10.2014 07:06 15,1 C 13,3 C 96 % 1003,8 hPa 0,0 l/m 0 min 0 min 0 W/m 6,3 km/h (2 Bft)
09.10.2014 07:08 15,1 C 13,3 C 96 % 1003,8 hPa 0,0 l/m 0 min 0 min 0 W/m 6,3 km/h (2 Bft)
09.10.2014 07:10 15,1 C 13,3 C 96 % 1003,8 hPa 0,0 l/m 0 min 0 min 0 W/m 10,5 km/h (2 Bft)
09.10.2014 07:12 15,1 C 13,3 C 96 % 1003,8 hPa 0,0 l/m 0 min 0 min 0 W/m 10,5 km/h (2 Bft)
09.10.2014 07:14 15,1 C 13,3 C 96 % 1003,7 hPa 0,0 l/m 0 min 0 min 0 W/m 12,6 km/h (3 Bft)
09.10.2014 07:16 15,0 C 13,3 C 96 % 1003,8 hPa 0,0 l/m 0 min 0 min 0 W/m 8,4 km/h (2 Bft)
09.10.2014 07:18 15,0 C 13,3 C 96 % 1003,9 hPa 0,0 l/m 0 min 0 min 0 W/m 8,4 km/h (2 Bft)
09.10.2014 07:20 15,0 C 13,3 C 96 % 1003,9 hPa 0,0 l/m 0 min 0 min 0 W/m 10,5 km/h (2 Bft)
09.10.2014 07:22 15,0 C 13,3 C 96 % 1003,9 hPa 0,0 l/m 0 min 0 min 0 W/m 12,6 km/h (3 Bft)
09.10.2014 07:24 15,0 C 13,3 C 96 % 1003,9 hPa 0,0 l/m 0 min 0 min 0 W/m 8,4 km/h (2 Bft)
09.10.2014 07:26 15,0 C 13,3 C 96 % 1003,8 hPa 0,0 l/m 0 min 0 min 0 W/m 10,5 km/h (2 Bft)
09.10.2014 07:28 14,9 C 13,3 C 96 % 1003,6 hPa 0,0 l/m 0 min 0 min 0 W/m 8,4 km/h (2 Bft)
09.10.2014 07:30 14,9 C 13,3 C 96 % 1003,8 hPa 0,0 l/m 0 min 0 min 0 W/m 8,4 km/h (2 Bft)
09.10.2014 07:32 14,9 C 13,3 C 96 % 1003,8 hPa 0,0 l/m 0 min 0 min 0 W/m 12,6 km/h (3 Bft)
09.10.2014 07:34 14,9 C 13,3 C 96 % 1003,8 hPa 0,0 l/m 0 min 0 min 0 W/m 8,4 km/h (2 Bft)
09.10.2014 07:36 14,9 C 13,3 C 96 % 1003,8 hPa 0,0 l/m 0 min 0 min 0 W/m 14,6 km/h (3 Bft)
09.10.2014 07:38 14,9 C 13,3 C 96 % 1003,8 hPa 0,0 l/m 0 min 0 min 0 W/m 10,5 km/h (2 Bft)
09.10.2014 07:40 14,9 C 13,3 C 96 % 1003,7 hPa 0,0 l/m 0 min 0 min 0 W/m 12,6 km/h (3 Bft)
09.10.2014 07:42 14,9 C 13,3 C 96 % 1003,8 hPa 0,0 l/m 0 min 0 min 0 W/m 12,6 km/h (3 Bft)
09.10.2014 07:44 14,9 C 12,8 C 96 % 1003,8 hPa 0,0 l/m 0 min 0 min 0 W/m 10,5 km/h (2 Bft)
09.10.2014 07:46 14,9 C 12,8 C 96 % 1003,9 hPa 0,0 l/m 0 min 0 min 0 W/m 8,4 km/h (2 Bft)
09.10.2014 07:48 14,9 C 12,8 C 96 % 1003,9 hPa 0,0 l/m 0 min 0 min 0 W/m 12,6 km/h (3 Bft)
09.10.2014 07:50 14,9 C 13,3 C 96 % 1003,9 hPa 0,0 l/m 0 min 0 min 0 W/m 14,6 km/h (3 Bft)
09.10.2014 07:52 14,9 C 13,3 C 96 % 1003,9 hPa 0,0 l/m 0 min 0 min 0 W/m 12,6 km/h (3 Bft)
09.10.2014 07:54 14,8 C 13,3 C 96 % 1004,0 hPa 0,0 l/m 0 min 0 min 0 W/m 12,6 km/h (3 Bft)
09.10.2014 07:56 14,8 C 13,3 C 96 % 1004,0 hPa 0,0 l/m 0 min 0 min 0 W/m 14,6 km/h (3 Bft)
09.10.2014 07:58 14,8 C 13,3 C 96 % 1004,1 hPa 0,0 l/m 0 min 0 min 4 W/m 14,6 km/h (3 Bft)
09.10.2014 08:00 14,8 C 13,3 C 96 % 1004,1 hPa 0,0 l/m 0 min 0 min 5 W/m 12,6 km/h (3 Bft)
09.10.2014 08:02 14,8 C 13,3 C 96 % 1004,1 hPa 0,0 l/m 0 min 0 min 5 W/m 10,5 km/h (2 Bft)
09.10.2014 08:04 14,8 C 13,3 C 96 % 1004,1 hPa 0,0 l/m 0 min 0 min 5 W/m 6,3 km/h (2 Bft)
09.10.2014 08:06 14,8 C 12,8 C 96 % 1004,1 hPa 0,0 l/m 0 min 0 min 7 W/m 8,4 km/h (2 Bft)
09.10.2014 08:08 14,7 C 13,3 C 96 % 1004,2 hPa 0,0 l/m 0 min 0 min 7 W/m 16,7 km/h (3 Bft)
09.10.2014 08:10 14,7 C 13,3 C 96 % 1004,2 hPa 0,0 l/m 0 min 0 min 9 W/m 12,6 km/h (3 Bft)
09.10.2014 08:12 14,7 C 12,8 C 96 % 1004,2 hPa 0,0 l/m 0 min 0 min 9 W/m 10,5 km/h (2 Bft)
09.10.2014 08:14 14,7 C 12,8 C 96 % 1004,2 hPa 0,0 l/m 0 min 0 min 11 W/m 12,6 km/h (3 Bft)
09.10.2014 08:16 14,7 C 12,8 C 96 % 1004,2 hPa 0,0 l/m 0 min 0 min 13 W/m 12,6 km/h (3 Bft)
09.10.2014 08:18 14,6 C 12,8 C 96 % 1004,2 hPa 0,0 l/m 0 min 0 min 16 W/m 12,6 km/h (3 Bft)
09.10.2014 08:20 14,6 C 12,8 C 96 % 1004,2 hPa 0,0 l/m 0 min 0 min 18 W/m 10,5 km/h (2 Bft)
09.10.2014 08:22 14,6 C 12,8 C 96 % 1004,2 hPa 0,0 l/m 0 min 0 min 19 W/m 16,7 km/h (3 Bft)
09.10.2014 08:24 14,6 C 12,8 C 96 % 1004,2 hPa 0,0 l/m 0 min 0 min 20 W/m 14,6 km/h (3 Bft)
09.10.2014 08:26 14,6 C 12,8 C 96 % 1004,2 hPa 0,0 l/m 0 min 0 min 24 W/m 12,6 km/h (3 Bft)
09.10.2014 08:28 14,6 C 12,8 C 96 % 1004,3 hPa 0,0 l/m 0 min 0 min 26 W/m 8,4 km/h (2 Bft)
09.10.2014 08:30 14,5 C 12,8 C 96 % 1004,3 hPa 0,0 l/m 0 min 0 min 27 W/m 8,4 km/h (2 Bft)
09.10.2014 08:32 14,5 C 12,8 C 96 % 1004,2 hPa 0,0 l/m 0 min 0 min 33 W/m 6,3 km/h (2 Bft)
09.10.2014 08:34 14,5 C 12,8 C 96 % 1004,2 hPa 0,0 l/m 0 min 0 min 41 W/m 8,4 km/h (2 Bft)
09.10.2014 08:36 14,5 C 12,8 C 96 % 1004,3 hPa 0,0 l/m 2 min 0 min 47 W/m 6,3 km/h (2 Bft)
09.10.2014 08:38 14,5 C 12,8 C 96 % 1004,4 hPa 0,0 l/m 2 min 0 min 49 W/m 8,4 km/h (2 Bft)
09.10.2014 08:40 14,4 C 12,8 C 96 % 1004,4 hPa 0,0 l/m 0 min 0 min 47 W/m 10,5 km/h (2 Bft)
09.10.2014 08:42 14,4 C 12,8 C 96 % 1004,4 hPa 0,0 l/m 0 min 0 min 46 W/m 8,4 km/h (2 Bft)
09.10.2014 08:44 14,4 C 12,8 C 96 % 1004,4 hPa 0,0 l/m 0 min 0 min 46 W/m 10,5 km/h (2 Bft)
09.10.2014 08:46 14,4 C 12,8 C 96 % 1004,4 hPa 0,0 l/m 0 min 0 min 50 W/m 10,5 km/h (2 Bft)
09.10.2014 08:48 14,4 C 12,8 C 96 % 1004,4 hPa 0,0 l/m 2 min 0 min 64 W/m 8,4 km/h (2 Bft)
09.10.2014 08:50 14,4 C 12,8 C 96 % 1004,5 hPa 0,0 l/m 0 min 0 min 61 W/m 10,5 km/h (2 Bft)
09.10.2014 08:52 14,5 C 12,8 C 96 % 1004,5 hPa 0,0 l/m 0 min 0 min 57 W/m 6,3 km/h (2 Bft)
09.10.2014 08:54 14,5 C 13,3 C 96 % 1004,5 hPa 0,0 l/m 0 min 0 min 53 W/m 12,6 km/h (3 Bft)
09.10.2014 08:56 14,5 C 13,3 C 96 % 1004,6 hPa 0,0 l/m 0 min 0 min 55 W/m 8,4 km/h (2 Bft)
09.10.2014 08:58 14,5 C 13,3 C 96 % 1004,6 hPa 0,0 l/m 0 min 0 min 58 W/m 6,3 km/h (2 Bft)
09.10.2014 09:00 14,5 C 13,3 C 96 % 1004,7 hPa 0,0 l/m 0 min 0 min 60 W/m 8,4 km/h (2 Bft)
09.10.2014 09:02 14,5 C 13,3 C 96 % 1004,7 hPa 0,0 l/m 0 min 0 min 58 W/m 6,3 km/h (2 Bft)
09.10.2014 09:04 14,5 C 13,3 C 96 % 1004,6 hPa 0,0 l/m 0 min 0 min 58 W/m 8,4 km/h (2 Bft)
09.10.2014 09:06 14,6 C 13,3 C 96 % 1004,6 hPa 0,0 l/m 0 min 0 min 57 W/m 10,5 km/h (2 Bft)
09.10.2014 09:08 14,5 C 13,3 C 96 % 1004,6 hPa 0,0 l/m 0 min 0 min 56 W/m 10,5 km/h (2 Bft)
09.10.2014 09:10 14,6 C 13,3 C 96 % 1004,7 hPa 0,0 l/m 0 min 0 min 53 W/m 8,4 km/h (2 Bft)
09.10.2014 09:12 14,6 C 13,3 C 96 % 1004,7 hPa 0,0 l/m 0 min 0 min 49 W/m 10,5 km/h (2 Bft)
09.10.2014 09:14 14,6 C 13,3 C 96 % 1004,7 hPa 0,0 l/m 0 min 0 min 47 W/m 12,6 km/h (3 Bft)
09.10.2014 09:16 14,6 C 13,3 C 96 % 1004,7 hPa 0,0 l/m 0 min 0 min 48 W/m 12,6 km/h (3 Bft)
09.10.2014 09:18 14,6 C 13,3 C 96 % 1004,7 hPa 0,0 l/m 0 min 0 min 53 W/m 14,6 km/h (3 Bft)
09.10.2014 09:20 14,6 C 13,3 C 96 % 1004,8 hPa 0,0 l/m 0 min 0 min 57 W/m 6,3 km/h (2 Bft)
09.10.2014 09:22 14,6 C 13,3 C 96 % 1004,7 hPa 0,0 l/m 0 min 0 min 63 W/m 14,6 km/h (3 Bft)
09.10.2014 09:24 14,6 C 13,3 C 96 % 1004,7 hPa 0,0 l/m 0 min 0 min 66 W/m 10,5 km/h (2 Bft)
09.10.2014 09:26 14,7 C 13,3 C 96 % 1004,7 hPa 0,0 l/m 0 min 0 min 70 W/m 8,4 km/h (2 Bft)
09.10.2014 09:28 14,7 C 13,9 C 96 % 1004,8 hPa 0,0 l/m 0 min 0 min 73 W/m 10,5 km/h (2 Bft)
09.10.2014 09:30 14,7 C 13,9 C 96 % 1004,7 hPa 0,0 l/m 0 min 0 min 74 W/m 12,6 km/h (3 Bft)
09.10.2014 09:32 14,7 C 13,9 C 96 % 1004,7 hPa 0,0 l/m 0 min 0 min 69 W/m 6,3 km/h (2 Bft)
09.10.2014 09:34 14,7 C 13,9 C 95 % 1004,7 hPa 0,0 l/m 0 min 0 min 70 W/m 14,6 km/h (3 Bft)
09.10.2014 09:36 14,7 C 13,9 C 95 % 1004,7 hPa 0,0 l/m 0 min 0 min 73 W/m 8,4 km/h (2 Bft)
09.10.2014 09:38 14,8 C 13,9 C 95 % 1004,7 hPa 0,0 l/m 0 min 0 min 75 W/m 8,4 km/h (2 Bft)
09.10.2014 09:40 14,8 C 13,9 C 95 % 1004,8 hPa 0,0 l/m 0 min 0 min 76 W/m 8,4 km/h (2 Bft)
09.10.2014 09:42 14,8 C 13,9 C 95 % 1004,8 hPa 0,0 l/m 0 min 0 min 80 W/m 8,4 km/h (2 Bft)
09.10.2014 09:44 14,8 C 13,9 C 95 % 1004,8 hPa 0,0 l/m 0 min 0 min 83 W/m 8,4 km/h (2 Bft)
09.10.2014 09:46 14,8 C 13,9 C 95 % 1004,8 hPa 0,0 l/m 0 min 0 min 83 W/m 6,3 km/h (2 Bft)
09.10.2014 09:48 14,9 C 13,9 C 95 % 1004,8 hPa 0,0 l/m 0 min 0 min 86 W/m 6,3 km/h (2 Bft)
09.10.2014 09:50 14,9 C 13,9 C 95 % 1004,8 hPa 0,0 l/m 0 min 0 min 90 W/m 10,5 km/h (2 Bft)
09.10.2014 09:52 14,9 C 13,9 C 95 % 1004,9 hPa 0,0 l/m 0 min 0 min 90 W/m 8,4 km/h (2 Bft)
09.10.2014 09:54 14,9 C 13,9 C 95 % 1005,0 hPa 0,0 l/m 0 min 0 min 86 W/m 6,3 km/h (2 Bft)
09.10.2014 09:56 15,0 C 13,9 C 95 % 1005,0 hPa 0,0 l/m 0 min 0 min 84 W/m 8,4 km/h (2 Bft)
09.10.2014 09:58 15,0 C 13,9 C 95 % 1005,0 hPa 0,0 l/m 0 min 0 min 85 W/m 14,6 km/h (3 Bft)
09.10.2014 10:00 15,1 C 13,9 C 95 % 1005,1 hPa 0,0 l/m 0 min 0 min 90 W/m 14,6 km/h (3 Bft)
09.10.2014 10:02 15,1 C 13,9 C 95 % 1005,2 hPa 0,0 l/m 0 min 0 min 93 W/m 10,5 km/h (2 Bft)
09.10.2014 10:04 15,1 C 14,4 C 95 % 1005,2 hPa 0,0 l/m 0 min 0 min 96 W/m 14,6 km/h (3 Bft)
09.10.2014 10:06 15,2 C 14,4 C 95 % 1005,2 hPa 0,0 l/m 0 min 0 min 101 W/m 10,5 km/h (2 Bft)
09.10.2014 10:08 15,2 C 14,4 C 95 % 1005,2 hPa 0,0 l/m 0 min 0 min 104 W/m 10,5 km/h (2 Bft)
09.10.2014 10:10 15,2 C 14,4 C 95 % 1005,2 hPa 0,0 l/m 0 min 0 min 105 W/m 10,5 km/h (2 Bft)
09.10.2014 10:12 15,3 C 14,4 C 95 % 1005,4 hPa 0,0 l/m 0 min 0 min 111 W/m 10,5 km/h (2 Bft)
09.10.2014 10:14 15,3 C 14,4 C 95 % 1005,3 hPa 0,0 l/m 0 min 0 min 118 W/m 12,6 km/h (3 Bft)
09.10.2014 10:16 15,4 C 14,4 C 95 % 1005,3 hPa 0,0 l/m 0 min 0 min 118 W/m 8,4 km/h (2 Bft)
09.10.2014 10:18 15,4 C 14,4 C 95 % 1005,3 hPa 0,0 l/m 0 min 0 min 121 W/m 8,4 km/h (2 Bft)
09.10.2014 10:20 15,4 C 14,4 C 95 % 1005,3 hPa 0,0 l/m 0 min 0 min 125 W/m 10,5 km/h (2 Bft)
09.10.2014 10:22 15,5 C 14,4 C 95 % 1005,3 hPa 0,0 l/m 0 min 0 min 125 W/m 6,3 km/h (2 Bft)
09.10.2014 10:24 15,5 C 15,0 C 95 % 1005,2 hPa 0,0 l/m 0 min 0 min 120 W/m 6,3 km/h (2 Bft)
09.10.2014 10:26 15,6 C 15,0 C 95 % 1005,4 hPa 0,0 l/m 0 min 0 min 117 W/m 6,3 km/h (2 Bft)
09.10.2014 10:28 15,6 C 15,0 C 95 % 1005,4 hPa 0,0 l/m 0 min 0 min 119 W/m 6,3 km/h (2 Bft)
09.10.2014 10:30 15,6 C 15,0 C 95 % 1005,3 hPa 0,0 l/m 0 min 0 min 120 W/m 8,4 km/h (2 Bft)
09.10.2014 10:32 15,7 C 15,0 C 95 % 1005,1 hPa 0,0 l/m 0 min 0 min 119 W/m 8,4 km/h (2 Bft)
09.10.2014 10:34 15,7 C 15,0 C 95 % 1005,1 hPa 0,0 l/m 0 min 0 min 122 W/m 8,4 km/h (2 Bft)
09.10.2014 10:36 15,7 C 15,0 C 95 % 1005,1 hPa 0,0 l/m 0 min 0 min 121 W/m 10,5 km/h (2 Bft)
09.10.2014 10:38 15,8 C 15,0 C 95 % 1005,2 hPa 0,0 l/m 0 min 0 min 118 W/m 8,4 km/h (2 Bft)
09.10.2014 10:40 15,8 C 15,0 C 95 % 1005,2 hPa 0,0 l/m 0 min 0 min 115 W/m 12,6 km/h (3 Bft)
09.10.2014 10:42 15,8 C 15,0 C 95 % 1005,1 hPa 0,0 l/m 0 min 0 min 115 W/m 12,6 km/h (3 Bft)
09.10.2014 10:44 15,9 C 15,0 C 95 % 1005,2 hPa 0,0 l/m 0 min 0 min 123 W/m 12,6 km/h (3 Bft)
09.10.2014 10:46 15,9 C 15,0 C 95 % 1005,2 hPa 0,0 l/m 0 min 0 min 130 W/m 14,6 km/h (3 Bft)
09.10.2014 10:48 15,9 C 15,0 C 95 % 1005,1 hPa 0,0 l/m 0 min 0 min 137 W/m 12,6 km/h (3 Bft)
09.10.2014 10:50 16,0 C 15,0 C 95 % 1005,2 hPa 0,0 l/m 0 min 0 min 139 W/m 10,5 km/h (2 Bft)
09.10.2014 10:52 16,0 C 15,0 C 95 % 1005,2 hPa 0,0 l/m 0 min 0 min 136 W/m 12,6 km/h (3 Bft)
09.10.2014 10:54 16,1 C 15,0 C 95 % 1005,3 hPa 0,0 l/m 0 min 0 min 123 W/m 12,6 km/h (3 Bft)
09.10.2014 10:56 16,1 C 15,0 C 94 % 1005,2 hPa 0,0 l/m 0 min 0 min 115 W/m 8,4 km/h (2 Bft)
09.10.2014 10:58 16,1 C 15,0 C 94 % 1005,1 hPa 0,0 l/m 0 min 0 min 112 W/m 10,5 km/h (2 Bft)
09.10.2014 11:00 16,2 C 15,0 C 94 % 1005,1 hPa 0,0 l/m 0 min 0 min 112 W/m 20,9 km/h (4 Bft)
09.10.2014 11:02 16,2 C 15,0 C 94 % 1005,1 hPa 0,0 l/m 0 min 0 min 119 W/m 8,4 km/h (2 Bft)
09.10.2014 11:04 16,2 C 15,0 C 94 % 1005,1 hPa 0,0 l/m 0 min 0 min 120 W/m 12,6 km/h (3 Bft)
09.10.2014 11:06 16,2 C 15,0 C 94 % 1005,2 hPa 0,0 l/m 0 min 0 min 113 W/m 12,6 km/h (3 Bft)
09.10.2014 11:08 16,2 C 15,0 C 94 % 1005,4 hPa 0,0 l/m 0 min 0 min 112 W/m 10,5 km/h (2 Bft)
09.10.2014 11:10 16,2 C 15,0 C 94 % 1005,4 hPa 0,0 l/m 0 min 0 min 117 W/m 12,6 km/h (3 Bft)
09.10.2014 11:12 16,2 C 15,0 C 93 % 1005,4 hPa 0,0 l/m 0 min 0 min 119 W/m 14,6 km/h (3 Bft)
09.10.2014 11:14 16,2 C 15,0 C 93 % 1005,4 hPa 0,0 l/m 0 min 0 min 116 W/m 8,4 km/h (2 Bft)
09.10.2014 11:16 16,3 C 15,0 C 93 % 1005,5 hPa 0,0 l/m 0 min 0 min 114 W/m 10,5 km/h (2 Bft)
09.10.2014 11:18 16,3 C 15,0 C 93 % 1005,5 hPa 0,0 l/m 0 min 0 min 111 W/m 8,4 km/h (2 Bft)
09.10.2014 11:20 16,3 C 15,0 C 93 % 1005,5 hPa 0,0 l/m 0 min 0 min 113 W/m 14,6 km/h (3 Bft)
09.10.2014 11:22 16,3 C 15,0 C 92 % 1005,4 hPa 0,0 l/m 0 min 0 min 110 W/m 10,5 km/h (2 Bft)
09.10.2014 11:24 16,3 C 15,0 C 92 % 1005,5 hPa 0,0 l/m 0 min 0 min 108 W/m 10,5 km/h (2 Bft)
09.10.2014 11:26 16,4 C 15,0 C 92 % 1005,5 hPa 0,0 l/m 0 min 0 min 119 W/m 8,4 km/h (2 Bft)
09.10.2014 11:28 16,4 C 15,0 C 92 % 1005,5 hPa 0,0 l/m 0 min 0 min 134 W/m 14,6 km/h (3 Bft)
09.10.2014 11:30 16,4 C 15,0 C 92 % 1005,5 hPa 0,0 l/m 0 min 0 min 163 W/m 14,6 km/h (3 Bft)
09.10.2014 11:32 16,4 C 15,6 C 92 % 1005,6 hPa 0,0 l/m 0 min 0 min 182 W/m 14,6 km/h (3 Bft)
09.10.2014 11:34 16,4 C 15,6 C 91 % 1005,6 hPa 0,0 l/m 0 min 0 min 185 W/m 18,8 km/h (3 Bft)
09.10.2014 11:36 16,4 C 15,6 C 91 % 1005,6 hPa 0,0 l/m 0 min 0 min 149 W/m 18,8 km/h (3 Bft)
09.10.2014 11:38 16,4 C 15,0 C 91 % 1005,5 hPa 0,0 l/m 0 min 0 min 128 W/m 14,6 km/h (3 Bft)
09.10.2014 11:40 16,5 C 15,0 C 91 % 1005,6 hPa 0,0 l/m 0 min 0 min 123 W/m 12,6 km/h (3 Bft)
09.10.2014 11:42 16,5 C 15,0 C 90 % 1005,6 hPa 0,0 l/m 0 min 0 min 124 W/m 14,6 km/h (3 Bft)
09.10.2014 11:44 16,5 C 15,0 C 90 % 1005,5 hPa 0,0 l/m 0 min 0 min 125 W/m 18,8 km/h (3 Bft)
09.10.2014 11:46 16,5 C 15,0 C 90 % 1005,5 hPa 0,0 l/m 0 min 0 min 121 W/m 18,8 km/h (3 Bft)
09.10.2014 11:48 16,5 C 15,0 C 90 % 1005,5 hPa 0,0 l/m 0 min 0 min 118 W/m 12,6 km/h (3 Bft)
09.10.2014 11:50 16,6 C 15,0 C 90 % 1005,4 hPa 0,0 l/m 0 min 0 min 113 W/m 14,6 km/h (3 Bft)
09.10.2014 11:52 16,6 C 15,0 C 89 % 1005,5 hPa 0,0 l/m 0 min 0 min 108 W/m 16,7 km/h (3 Bft)
09.10.2014 11:54 16,6 C 15,0 C 89 % 1005,5 hPa 0,0 l/m 0 min 0 min 101 W/m 16,7 km/h (3 Bft)
09.10.2014 11:56 16,5 C 15,0 C 89 % 1005,4 hPa 0,0 l/m 0 min 0 min 97 W/m 14,6 km/h (3 Bft)
09.10.2014 11:58 16,6 C 15,0 C 88 % 1005,4 hPa 0,0 l/m 0 min 0 min 98 W/m 12,6 km/h (3 Bft)
09.10.2014 12:00 16,6 C 15,0 C 88 % 1005,5 hPa 0,0 l/m 0 min 0 min 98 W/m 14,6 km/h (3 Bft)
09.10.2014 12:02 16,6 C 15,0 C 88 % 1005,5 hPa 0,0 l/m 0 min 0 min 102 W/m 14,6 km/h (3 Bft)
09.10.2014 12:05 16,6 C 15,0 C 88 % 1005,5 hPa 0,0 l/m 0 min 0 min 128 W/m 20,9 km/h (4 Bft)
09.10.2014 12:08 16,6 C 15,0 C 88 % 1005,5 hPa 0,0 l/m 0 min 0 min 130 W/m 20,9 km/h (4 Bft)
09.10.2014 12:10 16,6 C 15,6 C 88 % 1005,5 hPa 0,0 l/m 0 min 0 min 154 W/m 10,5 km/h (2 Bft)
09.10.2014 12:12 16,6 C 15,6 C 88 % 1005,5 hPa 0,0 l/m 0 min 0 min 162 W/m 10,5 km/h (2 Bft)
09.10.2014 12:14 16,6 C 15,6 C 88 % 1005,5 hPa 0,0 l/m 0 min 0 min 168 W/m 12,6 km/h (3 Bft)
09.10.2014 12:16 16,6 C 15,6 C 88 % 1005,5 hPa 0,0 l/m 0 min 0 min 162 W/m 12,6 km/h (3 Bft)
09.10.2014 12:18 16,7 C 15,6 C 87 % 1005,5 hPa 0,0 l/m 0 min 0 min 152 W/m 12,6 km/h (3 Bft)
09.10.2014 12:20 16,7 C 15,6 C 87 % 1005,5 hPa 0,0 l/m 0 min 0 min 156 W/m 6,3 km/h (2 Bft)
09.10.2014 12:22 16,7 C 15,6 C 87 % 1005,5 hPa 0,0 l/m 0 min 0 min 165 W/m 14,6 km/h (3 Bft)
09.10.2014 12:24 16,7 C 15,6 C 87 % 1005,4 hPa 0,0 l/m 0 min 0 min 173 W/m 14,6 km/h (3 Bft)
09.10.2014 12:26 16,7 C 15,6 C 87 % 1005,4 hPa 0,0 l/m 0 min 0 min 175 W/m 23,0 km/h (4 Bft)
09.10.2014 12:28 16,8 C 15,6 C 87 % 1005,5 hPa 0,0 l/m 0 min 2 min 158 W/m 10,5 km/h (2 Bft)
09.10.2014 12:30 16,8 C 15,6 C 87 % 1005,5 hPa 0,0 l/m 0 min 0 min 139 W/m 14,6 km/h (3 Bft)
09.10.2014 12:32 16,8 C 15,6 C 87 % 1005,6 hPa 0,0 l/m 0 min 0 min 140 W/m 12,6 km/h (3 Bft)
09.10.2014 12:34 16,8 C 15,6 C 87 % 1005,6 hPa 0,0 l/m 0 min 0 min 153 W/m 14,6 km/h (3 Bft)
09.10.2014 12:36 16,8 C 15,6 C 87 % 1005,6 hPa 0,0 l/m 0 min 0 min 148 W/m 14,6 km/h (3 Bft)
09.10.2014 12:38 16,8 C 15,6 C 87 % 1005,5 hPa 0,0 l/m 0 min 0 min 138 W/m 14,6 km/h (3 Bft)
09.10.2014 12:40 16,8 C 15,6 C 86 % 1005,5 hPa 0,0 l/m 0 min 0 min 136 W/m 16,7 km/h (3 Bft)
09.10.2014 12:42 16,8 C 15,6 C 86 % 1005,6 hPa 0,0 l/m 0 min 0 min 144 W/m 16,7 km/h (3 Bft)
09.10.2014 12:44 16,8 C 15,6 C 86 % 1005,7 hPa 0,0 l/m 0 min 0 min 152 W/m 14,6 km/h (3 Bft)
09.10.2014 12:46 16,8 C 15,6 C 86 % 1005,5 hPa 0,0 l/m 0 min 0 min 151 W/m 12,6 km/h (3 Bft)
09.10.2014 12:48 16,8 C 15,6 C 86 % 1005,5 hPa 0,0 l/m 0 min 0 min 169 W/m 10,5 km/h (2 Bft)
09.10.2014 12:50 16,9 C 15,6 C 86 % 1005,5 hPa 0,0 l/m 0 min 0 min 188 W/m 12,6 km/h (3 Bft)
09.10.2014 12:52 16,9 C 15,6 C 86 % 1005,5 hPa 0,0 l/m 0 min 2 min 181 W/m 12,6 km/h (3 Bft)
09.10.2014 12:54 16,9 C 15,6 C 86 % 1005,5 hPa 0,0 l/m 0 min 2 min 160 W/m 14,6 km/h (3 Bft)
09.10.2014 12:56 16,9 C 15,6 C 86 % 1005,4 hPa 0,0 l/m 0 min 2 min 155 W/m 16,7 km/h (3 Bft)
09.10.2014 12:58 16,9 C 15,0 C 85 % 1005,1 hPa 0,0 l/m 0 min 0 min 145 W/m 12,6 km/h (3 Bft)
09.10.2014 13:00 16,9 C 15,0 C 85 % 1005,0 hPa 0,0 l/m 0 min 0 min 141 W/m 20,9 km/h (4 Bft)
09.10.2014 13:02 16,9 C 15,0 C 85 % 1005,0 hPa 0,0 l/m 0 min 0 min 149 W/m 10,5 km/h (2 Bft)
09.10.2014 13:04 16,9 C 15,0 C 85 % 1005,1 hPa 0,0 l/m 0 min 2 min 158 W/m 23,0 km/h (4 Bft)
09.10.2014 13:06 16,9 C 15,0 C 85 % 1005,3 hPa 0,0 l/m 0 min 0 min 155 W/m 14,6 km/h (3 Bft)
09.10.2014 13:08 16,9 C 15,0 C 85 % 1005,5 hPa 0,0 l/m 0 min 0 min 148 W/m 12,6 km/h (3 Bft)
09.10.2014 13:10 16,9 C 15,0 C 86 % 1005,5 hPa 0,0 l/m 0 min 0 min 142 W/m 10,5 km/h (2 Bft)
09.10.2014 13:12 16,9 C 15,6 C 86 % 1005,5 hPa 0,0 l/m 0 min 0 min 154 W/m 12,6 km/h (3 Bft)
09.10.2014 13:14 16,9 C 15,6 C 86 % 1005,7 hPa 0,0 l/m 0 min 0 min 157 W/m 14,6 km/h (3 Bft)
09.10.2014 13:16 16,9 C 15,6 C 85 % 1005,7 hPa 0,0 l/m 0 min 0 min 122 W/m 14,6 km/h (3 Bft)
09.10.2014 13:18 16,9 C 15,6 C 85 % 1005,7 hPa 0,0 l/m 0 min 0 min 117 W/m 14,6 km/h (3 Bft)
09.10.2014 13:20 16,9 C 15,6 C 85 % 1005,6 hPa 0,0 l/m 0 min 0 min 121 W/m 10,5 km/h (2 Bft)
09.10.2014 13:22 16,9 C 15,6 C 85 % 1005,5 hPa 0,0 l/m 0 min 0 min 123 W/m 14,6 km/h (3 Bft)
09.10.2014 13:24 16,9 C 15,6 C 85 % 1005,5 hPa 0,0 l/m 0 min 0 min 121 W/m 12,6 km/h (3 Bft)
09.10.2014 13:26 16,9 C 15,6 C 85 % 1005,5 hPa 0,0 l/m 0 min 0 min 119 W/m 20,9 km/h (4 Bft)
09.10.2014 13:28 16,9 C 15,6 C 85 % 1005,5 hPa 0,0 l/m 0 min 0 min 121 W/m 18,8 km/h (3 Bft)
09.10.2014 13:30 16,9 C 15,6 C 85 % 1005,6 hPa 0,0 l/m 0 min 0 min 117 W/m 23,0 km/h (4 Bft)
09.10.2014 13:32 16,9 C 15,0 C 85 % 1005,6 hPa 0,0 l/m 0 min 0 min 113 W/m 14,6 km/h (3 Bft)
09.10.2014 13:34 16,9 C 15,0 C 85 % 1005,6 hPa 0,0 l/m 0 min 0 min 117 W/m 16,7 km/h (3 Bft)
09.10.2014 13:36 16,9 C 15,6 C 84 % 1005,7 hPa 0,0 l/m 0 min 0 min 126 W/m 16,7 km/h (3 Bft)
09.10.2014 13:38 16,9 C 15,6 C 84 % 1005,8 hPa 0,0 l/m 0 min 0 min 133 W/m 12,6 km/h (3 Bft)
09.10.2014 13:40 16,9 C 15,6 C 84 % 1005,7 hPa 0,0 l/m 0 min 0 min 132 W/m 14,6 km/h (3 Bft)
09.10.2014 13:42 16,9 C 15,6 C 84 % 1005,8 hPa 0,0 l/m 0 min 0 min 128 W/m 16,7 km/h (3 Bft)
09.10.2014 13:44 16,9 C 15,6 C 84 % 1005,7 hPa 0,0 l/m 0 min 0 min 129 W/m 16,7 km/h (3 Bft)
09.10.2014 13:46 16,9 C 15,6 C 84 % 1005,6 hPa 0,0 l/m 0 min 0 min 141 W/m 12,6 km/h (3 Bft)
09.10.2014 13:48 16,9 C 15,6 C 84 % 1005,6 hPa 0,0 l/m 0 min 0 min 159 W/m 23,0 km/h (4 Bft)
09.10.2014 13:50 16,9 C 15,6 C 84 % 1005,7 hPa 0,0 l/m 0 min 0 min 159 W/m 20,9 km/h (4 Bft)
09.10.2014 13:52 16,9 C 15,6 C 84 % 1005,6 hPa 0,0 l/m 0 min 0 min 147 W/m 12,6 km/h (3 Bft)
09.10.2014 13:54 16,9 C 15,6 C 84 % 1005,6 hPa 0,0 l/m 0 min 0 min 136 W/m 20,9 km/h (4 Bft)
09.10.2014 13:56 16,9 C 15,6 C 83 % 1005,6 hPa 0,0 l/m 0 min 0 min 133 W/m 18,8 km/h (3 Bft)
09.10.2014 13:58 16,9 C 15,6 C 83 % 1005,6 hPa 0,0 l/m 0 min 0 min 123 W/m 12,6 km/h (3 Bft)
09.10.2014 14:00 16,9 C 15,6 C 83 % 1005,6 hPa 0,0 l/m 0 min 0 min 112 W/m 16,7 km/h (3 Bft)
09.10.2014 14:02 16,9 C 15,6 C 83 % 1005,8 hPa 0,0 l/m 0 min 0 min 103 W/m 23,0 km/h (4 Bft)
09.10.2014 14:04 16,9 C 15,6 C 83 % 1005,6 hPa 0,0 l/m 0 min 0 min 94 W/m 16,7 km/h (3 Bft)
09.10.2014 14:06 16,9 C 15,6 C 83 % 1005,6 hPa 0,0 l/m 0 min 0 min 91 W/m 10,5 km/h (2 Bft)
09.10.2014 14:08 17,0 C 15,0 C 83 % 1005,6 hPa 0,0 l/m 0 min 0 min 91 W/m 10,5 km/h (2 Bft)
09.10.2014 14:10 17,0 C 15,0 C 83 % 1005,7 hPa 0,0 l/m 0 min 0 min 90 W/m 14,6 km/h (3 Bft)
09.10.2014 14:12 17,0 C 15,0 C 83 % 1005,7 hPa 0,0 l/m 0 min 0 min 88 W/m 18,8 km/h (3 Bft)
09.10.2014 14:14 17,0 C 15,0 C 83 % 1005,7 hPa 0,0 l/m 0 min 0 min 87 W/m 12,6 km/h (3 Bft)
09.10.2014 14:16 17,0 C 15,0 C 83 % 1005,7 hPa 0,0 l/m 0 min 0 min 89 W/m 18,8 km/h (3 Bft)
09.10.2014 14:18 16,9 C 15,0 C 83 % 1005,7 hPa 0,0 l/m 0 min 0 min 93 W/m 20,9 km/h (4 Bft)
09.10.2014 14:20 17,0 C 15,0 C 83 % 1005,8 hPa 0,0 l/m 0 min 0 min 101 W/m 14,6 km/h (3 Bft)
09.10.2014 14:22 16,9 C 15,0 C 83 % 1005,9 hPa 0,0 l/m 0 min 0 min 110 W/m 16,7 km/h (3 Bft)
09.10.2014 14:24 16,9 C 15,6 C 83 % 1005,9 hPa 0,0 l/m 0 min 0 min 121 W/m 12,6 km/h (3 Bft)
09.10.2014 14:26 16,9 C 15,6 C 83 % 1005,8 hPa 0,0 l/m 0 min 0 min 128 W/m 12,6 km/h (3 Bft)
09.10.2014 14:28 16,9 C 15,6 C 83 % 1005,9 hPa 0,0 l/m 0 min 0 min 127 W/m 10,5 km/h (2 Bft)
09.10.2014 14:30 17,0 C 15,6 C 83 % 1005,8 hPa 0,0 l/m 0 min 0 min 122 W/m 10,5 km/h (2 Bft)
09.10.2014 14:32 17,0 C 15,6 C 83 % 1005,8 hPa 0,0 l/m 0 min 0 min 114 W/m 18,8 km/h (3 Bft)
09.10.2014 14:34 17,0 C 15,6 C 83 % 1005,7 hPa 0,0 l/m 0 min 0 min 120 W/m 14,6 km/h (3 Bft)
09.10.2014 14:36 17,0 C 15,6 C 83 % 1005,6 hPa 0,0 l/m 0 min 0 min 128 W/m 14,6 km/h (3 Bft)
09.10.2014 14:38 17,0 C 15,6 C 83 % 1005,6 hPa 0,0 l/m 0 min 0 min 133 W/m 10,5 km/h (2 Bft)
09.10.2014 14:40 17,0 C 15,6 C 83 % 1005,7 hPa 0,0 l/m 0 min 0 min 138 W/m 14,6 km/h (3 Bft)
09.10.2014 14:42 17,0 C 15,6 C 83 % 1005,9 hPa 0,0 l/m 0 min 0 min 145 W/m 16,7 km/h (3 Bft)
09.10.2014 14:44 17,1 C 15,6 C 83 % 1005,9 hPa 0,0 l/m 0 min 0 min 154 W/m 14,6 km/h (3 Bft)
09.10.2014 14:46 17,1 C 15,6 C 83 % 1005,8 hPa 0,0 l/m 0 min 0 min 155 W/m 12,6 km/h (3 Bft)
09.10.2014 14:48 17,1 C 16,1 C 83 % 1005,6 hPa 0,0 l/m 0 min 0 min 154 W/m 12,6 km/h (3 Bft)
09.10.2014 14:50 17,1 C 16,1 C 83 % 1005,7 hPa 0,0 l/m 0 min 0 min 158 W/m 18,8 km/h (3 Bft)
09.10.2014 14:52 17,1 C 16,1 C 83 % 1005,9 hPa 0,0 l/m 0 min 0 min 151 W/m 14,6 km/h (3 Bft)
09.10.2014 14:54 17,2 C 16,1 C 83 % 1006,0 hPa 0,0 l/m 0 min 0 min 151 W/m 20,9 km/h (4 Bft)
09.10.2014 14:56 17,2 C 16,1 C 82 % 1005,8 hPa 0,0 l/m 0 min 0 min 156 W/m 18,8 km/h (3 Bft)
09.10.2014 14:58 17,2 C 16,1 C 82 % 1005,7 hPa 0,0 l/m 0 min 0 min 147 W/m 16,7 km/h (3 Bft)
09.10.2014 15:00 17,2 C 16,1 C 82 % 1005,7 hPa 0,0 l/m 0 min 0 min 125 W/m 20,9 km/h (4 Bft)
09.10.2014 15:02 17,2 C 16,1 C 82 % 1005,7 hPa 0,0 l/m 0 min 0 min 106 W/m 23,0 km/h (4 Bft)
09.10.2014 15:04 17,2 C 15,6 C 82 % 1005,8 hPa 0,0 l/m 0 min 0 min 100 W/m 18,8 km/h (3 Bft)
09.10.2014 15:06 17,2 C 15,6 C 82 % 1005,8 hPa 0,0 l/m 0 min 0 min 97 W/m 14,6 km/h (3 Bft)
09.10.2014 15:08 17,2 C 15,6 C 81 % 1005,8 hPa 0,0 l/m 0 min 0 min 91 W/m 20,9 km/h (4 Bft)
09.10.2014 15:10 17,2 C 15,6 C 81 % 1005,7 hPa 0,0 l/m 0 min 0 min 90 W/m 12,6 km/h (3 Bft)
09.10.2014 15:12 17,2 C 15,6 C 81 % 1005,7 hPa 0,0 l/m 0 min 0 min 94 W/m 16,7 km/h (3 Bft)
09.10.2014 15:14 17,2 C 15,6 C 81 % 1005,7 hPa 0,0 l/m 0 min 0 min 108 W/m 10,5 km/h (2 Bft)
09.10.2014 15:16 17,3 C 15,6 C 81 % 1005,7 hPa 0,0 l/m 0 min 0 min 120 W/m 12,6 km/h (3 Bft)
09.10.2014 15:18 17,3 C 15,6 C 81 % 1005,6 hPa 0,0 l/m 0 min 0 min 137 W/m 14,6 km/h (3 Bft)
09.10.2014 15:20 17,3 C 15,6 C 82 % 1005,6 hPa 0,0 l/m 0 min 0 min 146 W/m 18,8 km/h (3 Bft)
09.10.2014 15:22 17,3 C 15,6 C 81 % 1005,6 hPa 0,0 l/m 0 min 0 min 143 W/m 16,7 km/h (3 Bft)
09.10.2014 15:24 17,3 C 15,6 C 81 % 1005,7 hPa 0,0 l/m 0 min 0 min 145 W/m 18,8 km/h (3 Bft)
09.10.2014 15:26 17,3 C 15,6 C 81 % 1005,6 hPa 0,0 l/m 0 min 0 min 143 W/m 12,6 km/h (3 Bft)
09.10.2014 15:28 17,3 C 15,6 C 81 % 1005,6 hPa 0,0 l/m 0 min 0 min 134 W/m 12,6 km/h (3 Bft)
09.10.2014 15:30 17,3 C 15,6 C 81 % 1005,6 hPa 0,0 l/m 0 min 0 min 119 W/m 16,7 km/h (3 Bft)
09.10.2014 15:32 17,3 C 15,6 C 81 % 1005,6 hPa 0,0 l/m 0 min 0 min 106 W/m 14,6 km/h (3 Bft)
09.10.2014 15:34 17,3 C 15,6 C 81 % 1005,7 hPa 0,0 l/m 0 min 0 min 102 W/m 12,6 km/h (3 Bft)
09.10.2014 15:36 17,3 C 15,6 C 81 % 1005,6 hPa 0,0 l/m 0 min 0 min 106 W/m 12,6 km/h (3 Bft)
09.10.2014 15:38 17,3 C 15,6 C 82 % 1005,6 hPa 0,0 l/m 0 min 0 min 112 W/m 10,5 km/h (2 Bft)
09.10.2014 15:40 17,3 C 15,6 C 82 % 1005,6 hPa 0,0 l/m 0 min 0 min 126 W/m 16,7 km/h (3 Bft)
09.10.2014 15:42 17,3 C 15,6 C 82 % 1005,6 hPa 0,0 l/m 0 min 0 min 143 W/m 20,9 km/h (4 Bft)
09.10.2014 15:44 17,3 C 15,6 C 82 % 1005,6 hPa 0,0 l/m 0 min 0 min 143 W/m 16,7 km/h (3 Bft)
09.10.2014 15:46 17,3 C 15,6 C 81 % 1005,6 hPa 0,0 l/m 0 min 0 min 137 W/m 25,1 km/h (4 Bft)
09.10.2014 15:48 17,3 C 15,6 C 82 % 1005,7 hPa 0,0 l/m 0 min 0 min 134 W/m 20,9 km/h (4 Bft)
09.10.2014 15:50 17,3 C 16,1 C 82 % 1005,8 hPa 0,0 l/m 0 min 0 min 131 W/m 10,5 km/h (2 Bft)
09.10.2014 15:52 17,3 C 16,1 C 82 % 1005,8 hPa 0,0 l/m 0 min 0 min 126 W/m 20,9 km/h (4 Bft)
09.10.2014 15:54 17,4 C 15,6 C 82 % 1005,8 hPa 0,0 l/m 0 min 0 min 119 W/m 16,7 km/h (3 Bft)
09.10.2014 15:56 17,4 C 15,6 C 82 % 1005,8 hPa 0,0 l/m 0 min 0 min 119 W/m 12,6 km/h (3 Bft)
09.10.2014 15:58 17,4 C 15,6 C 82 % 1005,8 hPa 0,0 l/m 0 min 0 min 119 W/m 18,8 km/h (3 Bft)
09.10.2014 16:00 17,4 C 15,6 C 82 % 1005,7 hPa 0,0 l/m 0 min 0 min 117 W/m 18,8 km/h (3 Bft)
09.10.2014 16:02 17,3 C 15,6 C 82 % 1005,8 hPa 0,0 l/m 0 min 0 min 124 W/m 14,6 km/h (3 Bft)
09.10.2014 16:04 17,4 C 15,6 C 82 % 1005,7 hPa 0,0 l/m 0 min 0 min 129 W/m 16,7 km/h (3 Bft)
09.10.2014 16:06 17,3 C 15,6 C 82 % 1005,9 hPa 0,0 l/m 0 min 0 min 134 W/m 12,6 km/h (3 Bft)
09.10.2014 16:08 17,4 C 15,6 C 82 % 1005,8 hPa 0,0 l/m 0 min 0 min 145 W/m 14,6 km/h (3 Bft)
09.10.2014 16:10 17,4 C 15,6 C 83 % 1005,7 hPa 0,0 l/m 2 min 0 min 167 W/m 20,9 km/h (4 Bft)
09.10.2014 16:12 17,4 C 16,1 C 82 % 1005,7 hPa 0,0 l/m 2 min 0 min 168 W/m 23,0 km/h (4 Bft)
09.10.2014 16:14 17,4 C 16,1 C 83 % 1005,6 hPa 0,0 l/m 2 min 0 min 159 W/m 10,5 km/h (2 Bft)
09.10.2014 16:16 17,4 C 16,1 C 83 % 1005,7 hPa 0,0 l/m 2 min 0 min 160 W/m 10,5 km/h (2 Bft)
09.10.2014 16:18 17,4 C 16,1 C 83 % 1005,7 hPa 0,0 l/m 2 min 0 min 155 W/m 14,6 km/h (3 Bft)
09.10.2014 16:20 17,4 C 16,1 C 83 % 1005,8 hPa 0,0 l/m 2 min 0 min 169 W/m 12,6 km/h (3 Bft)
09.10.2014 16:22 17,4 C 16,1 C 83 % 1005,8 hPa 0,0 l/m 2 min 0 min 178 W/m 18,8 km/h (3 Bft)
09.10.2014 16:24 17,4 C 16,1 C 82 % 1005,8 hPa 0,0 l/m 2 min 0 min 178 W/m 20,9 km/h (4 Bft)
09.10.2014 16:26 17,4 C 16,1 C 82 % 1005,7 hPa 0,0 l/m 2 min 0 min 186 W/m 18,8 km/h (3 Bft)
09.10.2014 16:28 17,4 C 16,1 C 82 % 1005,8 hPa 0,0 l/m 2 min 0 min 168 W/m 12,6 km/h (3 Bft)
09.10.2014 16:30 17,4 C 16,1 C 82 % 1005,8 hPa 0,0 l/m 2 min 0 min 148 W/m 12,6 km/h (3 Bft)
09.10.2014 16:32 17,4 C 16,1 C 82 % 1005,9 hPa 0,0 l/m 2 min 0 min 146 W/m 14,6 km/h (3 Bft)
09.10.2014 16:34 17,5 C 16,1 C 82 % 1005,9 hPa 0,0 l/m 2 min 0 min 145 W/m 29,3 km/h (5 Bft)
09.10.2014 16:36 17,5 C 16,1 C 82 % 1005,8 hPa 0,0 l/m 2 min 0 min 140 W/m 18,8 km/h (3 Bft)
09.10.2014 16:38 17,5 C 16,1 C 82 % 1005,9 hPa 0,0 l/m 2 min 0 min 133 W/m 25,1 km/h (4 Bft)
09.10.2014 16:40 17,5 C 16,1 C 82 % 1005,9 hPa 0,0 l/m 2 min 0 min 133 W/m 18,8 km/h (3 Bft)
09.10.2014 16:42 17,5 C 15,6 C 82 % 1005,9 hPa 0,0 l/m 2 min 0 min 132 W/m 23,0 km/h (4 Bft)
09.10.2014 16:44 17,5 C 15,6 C 82 % 1005,8 hPa 0,0 l/m 2 min 0 min 130 W/m 20,9 km/h (4 Bft)
09.10.2014 16:46 17,4 C 15,6 C 82 % 1005,9 hPa 0,0 l/m 2 min 0 min 139 W/m 27,2 km/h (4 Bft)
09.10.2014 16:48 17,4 C 15,6 C 82 % 1005,9 hPa 0,0 l/m 2 min 0 min 159 W/m 23,0 km/h (4 Bft)
09.10.2014 16:50 17,4 C 15,6 C 82 % 1005,9 hPa 0,0 l/m 2 min 0 min 141 W/m 23,0 km/h (4 Bft)
09.10.2014 16:52 17,4 C 15,6 C 82 % 1005,9 hPa 0,0 l/m 2 min 0 min 122 W/m 23,0 km/h (4 Bft)
09.10.2014 16:54 17,4 C 15,6 C 82 % 1005,9 hPa 0,0 l/m 0 min 0 min 114 W/m 23,0 km/h (4 Bft)
09.10.2014 16:56 17,4 C 15,6 C 82 % 1006,0 hPa 0,0 l/m 2 min 0 min 116 W/m 29,3 km/h (5 Bft)
09.10.2014 16:58 17,4 C 15,6 C 82 % 1006,0 hPa 0,0 l/m 2 min 0 min 117 W/m 16,7 km/h (3 Bft)
09.10.2014 17:00 17,4 C 15,6 C 82 % 1005,9 hPa 0,0 l/m 0 min 0 min 109 W/m 27,2 km/h (4 Bft)
09.10.2014 17:02 17,4 C 15,6 C 82 % 1005,9 hPa 0,0 l/m 0 min 0 min 104 W/m 27,2 km/h (4 Bft)
09.10.2014 17:04 17,3 C 15,6 C 82 % 1005,9 hPa 0,0 l/m 0 min 0 min 98 W/m 31,4 km/h (5 Bft)
09.10.2014 17:06 17,3 C 15,6 C 82 % 1005,9 hPa 0,0 l/m 2 min 0 min 107 W/m 18,8 km/h (3 Bft)
09.10.2014 17:08 17,3 C 15,6 C 82 % 1005,9 hPa 0,0 l/m 2 min 0 min 117 W/m 20,9 km/h (4 Bft)
09.10.2014 17:10 17,3 C 15,6 C 82 % 1005,9 hPa 0,0 l/m 2 min 0 min 128 W/m 20,9 km/h (4 Bft)
09.10.2014 17:12 17,3 C 15,6 C 82 % 1005,9 hPa 0,0 l/m 2 min 0 min 137 W/m 18,8 km/h (3 Bft)
09.10.2014 17:14 17,3 C 15,6 C 82 % 1005,8 hPa 0,0 l/m 2 min 0 min 143 W/m 16,7 km/h (3 Bft)
09.10.2014 17:16 17,3 C 15,6 C 82 % 1005,9 hPa 0,0 l/m 2 min 0 min 168 W/m 14,6 km/h (3 Bft)
09.10.2014 17:18 17,3 C 15,6 C 82 % 1006,0 hPa 0,0 l/m 2 min 0 min 178 W/m 18,8 km/h (3 Bft)
09.10.2014 17:20 17,3 C 15,6 C 82 % 1005,9 hPa 0,0 l/m 2 min 0 min 211 W/m 14,6 km/h (3 Bft)
09.10.2014 17:22 17,3 C 15,6 C 83 % 1006,0 hPa 0,0 l/m 2 min 0 min 205 W/m 16,7 km/h (3 Bft)
09.10.2014 17:24 17,3 C 16,1 C 83 % 1005,9 hPa 0,0 l/m 2 min 0 min 152 W/m 16,7 km/h (3 Bft)
09.10.2014 17:26 17,3 C 15,6 C 82 % 1005,9 hPa 0,0 l/m 2 min 0 min 161 W/m 18,8 km/h (3 Bft)
09.10.2014 17:28 17,3 C 16,1 C 83 % 1005,9 hPa 0,0 l/m 2 min 0 min 190 W/m 12,6 km/h (3 Bft)
09.10.2014 17:30 17,3 C 16,1 C 83 % 1005,9 hPa 0,0 l/m 2 min 0 min 189 W/m 10,5 km/h (2 Bft)
09.10.2014 17:32 17,3 C 16,1 C 83 % 1006,0 hPa 0,0 l/m 2 min 0 min 173 W/m 10,5 km/h (2 Bft)
09.10.2014 17:34 17,4 C 15,6 C 83 % 1005,9 hPa 0,0 l/m 2 min 0 min 150 W/m 20,9 km/h (4 Bft)
09.10.2014 17:36 17,4 C 15,6 C 82 % 1005,8 hPa 0,0 l/m 2 min 0 min 142 W/m 16,7 km/h (3 Bft)
09.10.2014 17:38 17,4 C 15,6 C 82 % 1006,0 hPa 0,0 l/m 2 min 0 min 156 W/m 12,6 km/h (3 Bft)
09.10.2014 17:40 17,4 C 15,6 C 82 % 1005,9 hPa 0,0 l/m 2 min 0 min 157 W/m 12,6 km/h (3 Bft)
09.10.2014 17:42 17,4 C 15,6 C 82 % 1005,9 hPa 0,0 l/m 2 min 0 min 155 W/m 23,0 km/h (4 Bft)
09.10.2014 17:44 17,4 C 15,6 C 82 % 1005,9 hPa 0,0 l/m 2 min 0 min 148 W/m 18,8 km/h (3 Bft)
09.10.2014 17:46 17,4 C 15,6 C 82 % 1006,0 hPa 0,0 l/m 2 min 0 min 133 W/m 20,9 km/h (4 Bft)
09.10.2014 17:48 17,4 C 15,6 C 82 % 1006,0 hPa 0,0 l/m 2 min 0 min 102 W/m 20,9 km/h (4 Bft)
09.10.2014 17:50 17,4 C 15,6 C 82 % 1006,0 hPa 0,0 l/m 2 min 0 min 82 W/m 16,7 km/h (3 Bft)
09.10.2014 17:52 17,4 C 15,6 C 82 % 1006,1 hPa 0,0 l/m 2 min 0 min 76 W/m 25,1 km/h (4 Bft)
09.10.2014 17:54 17,4 C 15,6 C 82 % 1006,1 hPa 0,0 l/m 2 min 0 min 72 W/m 14,6 km/h (3 Bft)
09.10.2014 17:56 17,4 C 15,6 C 82 % 1006,1 hPa 0,0 l/m 2 min 0 min 66 W/m 14,6 km/h (3 Bft)
09.10.2014 17:58 17,4 C 15,0 C 82 % 1006,1 hPa 0,0 l/m 2 min 0 min 56 W/m 14,6 km/h (3 Bft)
09.10.2014 18:00 17,4 C 15,0 C 82 % 1006,2 hPa 0,0 l/m 0 min 0 min 50 W/m 8,4 km/h (2 Bft)
09.10.2014 18:02 17,4 C 15,0 C 82 % 1006,2 hPa 0,0 l/m 0 min 0 min 48 W/m 12,6 km/h (3 Bft)
09.10.2014 18:05 17,3 C 15,0 C 82 % 1006,2 hPa 0,0 l/m 0 min 0 min 46 W/m 16,7 km/h (3 Bft)
09.10.2014 18:08 17,3 C 15,0 C 82 % 1006,3 hPa 0,0 l/m 0 min 0 min 43 W/m 16,7 km/h (3 Bft)
09.10.2014 18:10 17,2 C 15,0 C 82 % 1006,3 hPa 0,0 l/m 0 min 0 min 41 W/m 12,6 km/h (3 Bft)
09.10.2014 18:12 17,2 C 15,0 C 82 % 1006,3 hPa 0,0 l/m 0 min 0 min 37 W/m 18,8 km/h (3 Bft)
09.10.2014 18:14 17,2 C 15,0 C 82 % 1006,3 hPa 0,0 l/m 0 min 0 min 31 W/m 14,6 km/h (3 Bft)
09.10.2014 18:16 17,2 C 15,0 C 82 % 1006,3 hPa 0,0 l/m 0 min 0 min 27 W/m 18,8 km/h (3 Bft)
09.10.2014 18:18 17,1 C 15,0 C 82 % 1006,3 hPa 0,0 l/m 0 min 0 min 25 W/m 23,0 km/h (4 Bft)
09.10.2014 18:20 17,1 C 15,0 C 82 % 1006,3 hPa 0,0 l/m 0 min 0 min 22 W/m 16,7 km/h (3 Bft)
09.10.2014 18:22 17,1 C 15,0 C 82 % 1006,3 hPa 0,0 l/m 0 min 0 min 21 W/m 18,8 km/h (3 Bft)
09.10.2014 18:24 17,1 C 15,0 C 82 % 1006,3 hPa 0,0 l/m 0 min 0 min 19 W/m 20,9 km/h (4 Bft)
09.10.2014 18:26 17,1 C 15,0 C 82 % 1006,3 hPa 0,0 l/m 0 min 0 min 19 W/m 16,7 km/h (3 Bft)
09.10.2014 18:28 17,1 C 15,0 C 83 % 1006,3 hPa 0,0 l/m 0 min 0 min 22 W/m 14,6 km/h (3 Bft)
09.10.2014 18:30 17,0 C 15,0 C 83 % 1006,3 hPa 0,0 l/m 2 min 0 min 22 W/m 14,6 km/h (3 Bft)
09.10.2014 18:32 17,0 C 15,0 C 83 % 1006,3 hPa 0,0 l/m 2 min 0 min 19 W/m 14,6 km/h (3 Bft)
09.10.2014 18:34 17,0 C 15,0 C 83 % 1006,3 hPa 0,0 l/m 0 min 0 min 16 W/m 14,6 km/h (3 Bft)
09.10.2014 18:36 16,9 C 15,0 C 83 % 1006,3 hPa 0,0 l/m 0 min 0 min 13 W/m 25,1 km/h (4 Bft)
09.10.2014 18:38 16,9 C 15,0 C 83 % 1006,3 hPa 0,0 l/m 0 min 0 min 12 W/m 14,6 km/h (3 Bft)
09.10.2014 18:40 16,9 C 15,0 C 83 % 1006,3 hPa 0,0 l/m 0 min 0 min 11 W/m 14,6 km/h (3 Bft)
09.10.2014 18:42 16,9 C 15,0 C 83 % 1006,3 hPa 0,0 l/m 0 min 0 min 11 W/m 12,6 km/h (3 Bft)
09.10.2014 18:44 16,9 C 15,0 C 83 % 1006,3 hPa 0,0 l/m 0 min 0 min 10 W/m 16,7 km/h (3 Bft)
09.10.2014 18:46 16,9 C 15,0 C 83 % 1006,3 hPa 0,0 l/m 0 min 0 min 9 W/m 20,9 km/h (4 Bft)
09.10.2014 18:48 16,8 C 15,0 C 83 % 1006,4 hPa 0,0 l/m 0 min 0 min 10 W/m 10,5 km/h (2 Bft)
09.10.2014 18:50 16,8 C 15,0 C 84 % 1006,4 hPa 0,0 l/m 0 min 0 min 9 W/m 14,6 km/h (3 Bft)
09.10.2014 18:52 16,8 C 15,0 C 84 % 1006,4 hPa 0,0 l/m 0 min 0 min 7 W/m 12,6 km/h (3 Bft)
09.10.2014 18:54 16,8 C 14,4 C 83 % 1006,4 hPa 0,0 l/m 0 min 0 min 7 W/m 23,0 km/h (4 Bft)
09.10.2014 18:56 16,8 C 14,4 C 84 % 1006,6 hPa 0,0 l/m 0 min 0 min 6 W/m 12,6 km/h (3 Bft)
09.10.2014 18:58 16,7 C 14,4 C 84 % 1006,5 hPa 0,0 l/m 0 min 0 min 5 W/m 8,4 km/h (2 Bft)
09.10.2014 19:00 16,7 C 14,4 C 84 % 1006,5 hPa 0,0 l/m 0 min 0 min 3 W/m 10,5 km/h (2 Bft)
09.10.2014 19:02 16,7 C 14,4 C 84 % 1006,5 hPa 0,0 l/m 0 min 0 min 0 W/m 8,4 km/h (2 Bft)
09.10.2014 19:04 16,7 C 14,4 C 84 % 1006,6 hPa 0,0 l/m 0 min 0 min 0 W/m 14,6 km/h (3 Bft)
09.10.2014 19:06 16,6 C 14,4 C 84 % 1006,6 hPa 0,0 l/m 0 min 0 min 0 W/m 14,6 km/h (3 Bft)
09.10.2014 19:08 16,6 C 14,4 C 84 % 1006,7 hPa 0,0 l/m 0 min 0 min 0 W/m 14,6 km/h (3 Bft)
09.10.2014 19:10 16,6 C 14,4 C 84 % 1006,7 hPa 0,0 l/m 0 min 0 min 0 W/m 16,7 km/h (3 Bft)
09.10.2014 19:12 16,5 C 14,4 C 84 % 1006,8 hPa 0,0 l/m 0 min 0 min 0 W/m 14,6 km/h (3 Bft)
09.10.2014 19:14 16,5 C 14,4 C 84 % 1006,8 hPa 0,0 l/m 0 min 0 min 0 W/m 14,6 km/h (3 Bft)
09.10.2014 19:16 16,5 C 14,4 C 84 % 1006,8 hPa 0,0 l/m 0 min 0 min 0 W/m 10,5 km/h (2 Bft)
09.10.2014 19:18 16,4 C 14,4 C 84 % 1006,9 hPa 0,0 l/m 0 min 0 min 0 W/m 10,5 km/h (2 Bft)
09.10.2014 19:20 16,4 C 14,4 C 84 % 1006,9 hPa 0,0 l/m 0 min 0 min 0 W/m 10,5 km/h (2 Bft)
09.10.2014 19:22 16,4 C 13,9 C 84 % 1006,9 hPa 0,0 l/m 0 min 0 min 0 W/m 8,4 km/h (2 Bft)
09.10.2014 19:24 16,4 C 13,9 C 84 % 1006,9 hPa 0,0 l/m 0 min 0 min 0 W/m 16,7 km/h (3 Bft)
09.10.2014 19:26 16,3 C 13,9 C 84 % 1007,0 hPa 0,0 l/m 0 min 0 min 0 W/m 14,6 km/h (3 Bft)
09.10.2014 19:28 16,3 C 13,9 C 84 % 1007,0 hPa 0,0 l/m 0 min 0 min 0 W/m 14,6 km/h (3 Bft)
09.10.2014 19:30 16,3 C 13,9 C 84 % 1007,1 hPa 0,0 l/m 0 min 0 min 0 W/m 10,5 km/h (2 Bft)
09.10.2014 19:32 16,2 C 13,9 C 84 % 1007,1 hPa 0,0 l/m 0 min 0 min 0 W/m 8,4 km/h (2 Bft)
09.10.2014 19:34 16,2 C 13,9 C 84 % 1007,2 hPa 0,0 l/m 0 min 0 min 0 W/m 8,4 km/h (2 Bft)
09.10.2014 19:36 16,2 C 13,3 C 85 % 1007,2 hPa 0,0 l/m 0 min 0 min 0 W/m 12,6 km/h (3 Bft)
09.10.2014 19:38 16,1 C 13,3 C 85 % 1007,3 hPa 0,0 l/m 0 min 0 min 0 W/m 12,6 km/h (3 Bft)
09.10.2014 19:40 16,1 C 13,3 C 85 % 1007,3 hPa 0,0 l/m 0 min 0 min 0 W/m 10,5 km/h (2 Bft)
09.10.2014 19:42 16,0 C 13,3 C 85 % 1007,3 hPa 0,0 l/m 0 min 0 min 0 W/m 12,6 km/h (3 Bft)
09.10.2014 19:44 15,9 C 13,9 C 85 % 1007,4 hPa 0,0 l/m 0 min 0 min 0 W/m 10,5 km/h (2 Bft)
09.10.2014 19:46 15,9 C 13,3 C 85 % 1007,4 hPa 0,0 l/m 0 min 0 min 0 W/m 14,6 km/h (3 Bft)
09.10.2014 19:48 15,9 C 13,3 C 85 % 1007,5 hPa 0,0 l/m 0 min 0 min 0 W/m 14,6 km/h (3 Bft)
09.10.2014 19:50 15,8 C 13,3 C 85 % 1007,5 hPa 0,0 l/m 0 min 0 min 0 W/m 14,6 km/h (3 Bft)
09.10.2014 19:52 15,8 C 13,3 C 85 % 1007,5 hPa 0,0 l/m 0 min 0 min 0 W/m 14,6 km/h (3 Bft)
09.10.2014 19:54 15,7 C 13,3 C 85 % 1007,5 hPa 0,0 l/m 0 min 0 min 0 W/m 12,6 km/h (3 Bft)
09.10.2014 19:56 15,7 C 13,3 C 85 % 1007,5 hPa 0,0 l/m 0 min 0 min 0 W/m 8,4 km/h (2 Bft)
09.10.2014 19:58 15,7 C 13,3 C 85 % 1007,6 hPa 0,0 l/m 0 min 0 min 0 W/m 12,6 km/h (3 Bft)
09.10.2014 20:00 15,6 C 13,3 C 85 % 1007,6 hPa 0,0 l/m 0 min 0 min 0 W/m 12,6 km/h (3 Bft)
09.10.2014 20:02 15,6 C 13,3 C 85 % 1007,6 hPa 0,0 l/m 0 min 0 min 0 W/m 12,6 km/h (3 Bft)
09.10.2014 20:04 15,6 C 13,3 C 86 % 1007,7 hPa 0,0 l/m 0 min 0 min 0 W/m 23,0 km/h (4 Bft)
09.10.2014 20:06 15,6 C 13,3 C 86 % 1007,7 hPa 0,0 l/m 0 min 0 min 0 W/m 18,8 km/h (3 Bft)
09.10.2014 20:08 15,5 C 13,3 C 86 % 1007,6 hPa 0,0 l/m 0 min 0 min 0 W/m 16,7 km/h (3 Bft)
09.10.2014 20:10 15,5 C 13,3 C 86 % 1007,6 hPa 0,0 l/m 0 min 0 min 0 W/m 12,6 km/h (3 Bft)
09.10.2014 20:12 15,4 C 13,3 C 86 % 1007,7 hPa 0,0 l/m 0 min 0 min 0 W/m 12,6 km/h (3 Bft)
09.10.2014 20:14 15,4 C 13,3 C 86 % 1007,7 hPa 0,0 l/m 0 min 0 min 0 W/m 8,4 km/h (2 Bft)
09.10.2014 20:16 15,4 C 13,3 C 86 % 1007,7 hPa 0,0 l/m 0 min 0 min 0 W/m 14,6 km/h (3 Bft)
09.10.2014 20:18 15,3 C 13,3 C 86 % 1007,7 hPa 0,0 l/m 0 min 0 min 0 W/m 16,7 km/h (3 Bft)
09.10.2014 20:20 15,3 C 13,3 C 86 % 1007,7 hPa 0,0 l/m 0 min 0 min 0 W/m 14,6 km/h (3 Bft)
09.10.2014 20:22 15,3 C 13,3 C 86 % 1007,7 hPa 0,0 l/m 0 min 0 min 0 W/m 14,6 km/h (3 Bft)
09.10.2014 20:24 15,2 C 13,3 C 87 % 1007,8 hPa 0,0 l/m 0 min 0 min 0 W/m 8,4 km/h (2 Bft)
09.10.2014 20:26 15,2 C 13,3 C 87 % 1007,8 hPa 0,0 l/m 0 min 0 min 0 W/m 10,5 km/h (2 Bft)
09.10.2014 20:28 15,2 C 13,3 C 87 % 1007,9 hPa 0,0 l/m 0 min 0 min 0 W/m 14,6 km/h (3 Bft)
09.10.2014 20:30 15,2 C 13,3 C 87 % 1007,9 hPa 0,0 l/m 0 min 0 min 0 W/m 16,7 km/h (3 Bft)
09.10.2014 20:32 15,2 C 13,3 C 87 % 1007,9 hPa 0,0 l/m 0 min 0 min 0 W/m 10,5 km/h (2 Bft)
09.10.2014 20:34 15,2 C 12,8 C 87 % 1008,0 hPa 0,0 l/m 0 min 0 min 0 W/m 12,6 km/h (3 Bft)
09.10.2014 20:36 15,1 C 12,8 C 87 % 1008,0 hPa 0,0 l/m 0 min 0 min 0 W/m 16,7 km/h (3 Bft)
09.10.2014 20:38 15,1 C 12,8 C 87 % 1008,1 hPa 0,0 l/m 0 min 0 min 0 W/m 16,7 km/h (3 Bft)
09.10.2014 20:40 15,1 C 12,8 C 87 % 1008,1 hPa 0,0 l/m 0 min 0 min 0 W/m 12,6 km/h (3 Bft)
09.10.2014 20:42 15,1 C 12,8 C 87 % 1008,2 hPa 0,0 l/m 0 min 0 min 0 W/m 14,6 km/h (3 Bft)
09.10.2014 20:44 15,1 C 12,8 C 87 % 1008,2 hPa 0,0 l/m 0 min 0 min 0 W/m 12,6 km/h (3 Bft)
09.10.2014 20:46 15,0 C 12,8 C 87 % 1008,2 hPa 0,0 l/m 0 min 0 min 0 W/m 16,7 km/h (3 Bft)
09.10.2014 20:48 15,0 C 12,8 C 87 % 1008,2 hPa 0,0 l/m 0 min 0 min 0 W/m 16,7 km/h (3 Bft)
09.10.2014 20:50 15,0 C 12,8 C 87 % 1008,2 hPa 0,0 l/m 0 min 0 min 0 W/m 14,6 km/h (3 Bft)
09.10.2014 20:52 14,9 C 12,8 C 88 % 1008,3 hPa 0,0 l/m 0 min 0 min 0 W/m 12,6 km/h (3 Bft)
09.10.2014 20:54 14,9 C 12,8 C 88 % 1008,3 hPa 0,0 l/m 0 min 0 min 0 W/m 12,6 km/h (3 Bft)
09.10.2014 20:56 14,9 C 12,8 C 88 % 1008,3 hPa 0,0 l/m 0 min 0 min 0 W/m 16,7 km/h (3 Bft)
09.10.2014 20:58 14,8 C 12,8 C 88 % 1008,3 hPa 0,0 l/m 0 min 0 min 0 W/m 16,7 km/h (3 Bft)
09.10.2014 21:00 14,8 C 12,8 C 88 % 1008,3 hPa 0,0 l/m 0 min 0 min 0 W/m 16,7 km/h (3 Bft)
09.10.2014 21:02 14,8 C 12,8 C 88 % 1008,3 hPa 0,0 l/m 0 min 0 min 0 W/m 18,8 km/h (3 Bft)
09.10.2014 21:04 14,8 C 12,8 C 88 % 1008,4 hPa 0,0 l/m 0 min 0 min 0 W/m 16,7 km/h (3 Bft)
09.10.2014 21:06 14,7 C 12,8 C 88 % 1008,5 hPa 0,0 l/m 0 min 0 min 0 W/m 16,7 km/h (3 Bft)
09.10.2014 21:08 14,7 C 12,8 C 88 % 1008,4 hPa 0,0 l/m 0 min 0 min 0 W/m 12,6 km/h (3 Bft)
09.10.2014 21:10 14,7 C 12,8 C 88 % 1008,4 hPa 0,0 l/m 0 min 0 min 0 W/m 14,6 km/h (3 Bft)
09.10.2014 21:12 14,7 C 12,8 C 88 % 1008,4 hPa 0,0 l/m 0 min 0 min 0 W/m 12,6 km/h (3 Bft)
09.10.2014 21:14 14,7 C 12,8 C 88 % 1008,4 hPa 0,0 l/m 0 min 0 min 0 W/m 10,5 km/h (2 Bft)
09.10.2014 21:16 14,6 C 12,8 C 88 % 1008,5 hPa 0,0 l/m 0 min 0 min 0 W/m 14,6 km/h (3 Bft)
09.10.2014 21:18 14,6 C 12,8 C 89 % 1008,5 hPa 0,0 l/m 0 min 0 min 0 W/m 12,6 km/h (3 Bft)
09.10.2014 21:20 14,6 C 12,8 C 89 % 1008,5 hPa 0,0 l/m 0 min 0 min 0 W/m 12,6 km/h (3 Bft)
09.10.2014 21:22 14,6 C 12,8 C 89 % 1008,5 hPa 0,0 l/m 0 min 0 min 0 W/m 12,6 km/h (3 Bft)
09.10.2014 21:24 14,5 C 12,8 C 89 % 1008,6 hPa 0,0 l/m 0 min 0 min 0 W/m 12,6 km/h (3 Bft)
09.10.2014 21:26 14,5 C 12,8 C 89 % 1008,6 hPa 0,0 l/m 0 min 0 min 0 W/m 14,6 km/h (3 Bft)
09.10.2014 21:28 14,4 C 12,8 C 89 % 1008,5 hPa 0,0 l/m 0 min 0 min 0 W/m 23,0 km/h (4 Bft)
09.10.2014 21:30 14,4 C 12,8 C 89 % 1008,6 hPa 0,0 l/m 0 min 0 min 0 W/m 18,8 km/h (3 Bft)
09.10.2014 21:32 14,4 C 12,8 C 89 % 1008,7 hPa 0,0 l/m 0 min 0 min 0 W/m 12,6 km/h (3 Bft)
09.10.2014 21:34 14,4 C 12,8 C 89 % 1008,7 hPa 0,0 l/m 0 min 0 min 0 W/m 18,8 km/h (3 Bft)
09.10.2014 21:36 14,3 C 12,8 C 89 % 1008,7 hPa 0,0 l/m 0 min 0 min 0 W/m 14,6 km/h (3 Bft)
09.10.2014 21:38 14,3 C 12,8 C 89 % 1008,7 hPa 0,0 l/m 0 min 0 min 0 W/m 16,7 km/h (3 Bft)
09.10.2014 21:40 14,3 C 12,8 C 89 % 1008,7 hPa 0,0 l/m 0 min 0 min 0 W/m 20,9 km/h (4 Bft)
09.10.2014 21:42 14,3 C 12,8 C 89 % 1008,7 hPa 0,0 l/m 0 min 0 min 0 W/m 20,9 km/h (4 Bft)
09.10.2014 21:44 14,3 C 12,8 C 89 % 1008,7 hPa 0,0 l/m 0 min 0 min 0 W/m 14,6 km/h (3 Bft)
09.10.2014 21:46 14,3 C 12,8 C 89 % 1008,8 hPa 0,0 l/m 0 min 0 min 0 W/m 16,7 km/h (3 Bft)
09.10.2014 21:48 14,3 C 12,8 C 89 % 1008,8 hPa 0,0 l/m 0 min 0 min 0 W/m 14,6 km/h (3 Bft)
09.10.2014 21:50 14,2 C 12,8 C 89 % 1008,8 hPa 0,0 l/m 0 min 0 min 0 W/m 20,9 km/h (4 Bft)
09.10.2014 21:52 14,3 C 12,8 C 89 % 1008,8 hPa 0,0 l/m 0 min 0 min 0 W/m 16,7 km/h (3 Bft)
09.10.2014 21:54 14,2 C 12,8 C 89 % 1008,8 hPa 0,0 l/m 0 min 0 min 0 W/m 14,6 km/h (3 Bft)
09.10.2014 21:56 14,2 C 12,8 C 89 % 1008,8 hPa 0,0 l/m 0 min 0 min 0 W/m 14,6 km/h (3 Bft)
09.10.2014 21:58 14,2 C 12,8 C 89 % 1008,8 hPa 0,0 l/m 0 min 0 min 0 W/m 16,7 km/h (3 Bft)
09.10.2014 22:00 14,2 C 12,8 C 89 % 1008,9 hPa 0,0 l/m 0 min 0 min 0 W/m 23,0 km/h (4 Bft)
09.10.2014 22:02 14,2 C 12,8 C 89 % 1008,8 hPa 0,0 l/m 0 min 0 min 0 W/m 20,9 km/h (4 Bft)
09.10.2014 22:04 14,2 C 12,8 C 89 % 1008,9 hPa 0,0 l/m 0 min 0 min 0 W/m 12,6 km/h (3 Bft)
09.10.2014 22:06 14,2 C 12,8 C 89 % 1008,9 hPa 0,0 l/m 0 min 0 min 0 W/m 12,6 km/h (3 Bft)
09.10.2014 22:08 14,2 C 12,8 C 89 % 1008,9 hPa 0,0 l/m 0 min 0 min 0 W/m 12,6 km/h (3 Bft)
09.10.2014 22:10 14,2 C 12,8 C 89 % 1008,9 hPa 0,0 l/m 0 min 0 min 0 W/m 14,6 km/h (3 Bft)
09.10.2014 22:12 14,2 C 12,8 C 89 % 1009,0 hPa 0,0 l/m 0 min 0 min 0 W/m 14,6 km/h (3 Bft)
09.10.2014 22:14 14,2 C 12,2 C 89 % 1009,0 hPa 0,0 l/m 0 min 0 min 0 W/m 16,7 km/h (3 Bft)
09.10.2014 22:16 14,2 C 12,8 C 89 % 1009,0 hPa 0,0 l/m 0 min 0 min 0 W/m 14,6 km/h (3 Bft)
09.10.2014 22:18 14,2 C 12,2 C 89 % 1009,0 hPa 0,0 l/m 0 min 0 min 0 W/m 16,7 km/h (3 Bft)
09.10.2014 22:20 14,2 C 12,2 C 89 % 1009,1 hPa 0,0 l/m 0 min 0 min 0 W/m 12,6 km/h (3 Bft)
09.10.2014 22:22 14,2 C 12,2 C 89 % 1009,0 hPa 0,0 l/m 0 min 0 min 0 W/m 18,8 km/h (3 Bft)
09.10.2014 22:24 14,2 C 12,2 C 89 % 1009,1 hPa 0,0 l/m 0 min 0 min 0 W/m 14,6 km/h (3 Bft)
09.10.2014 22:26 14,2 C 12,8 C 89 % 1009,1 hPa 0,0 l/m 0 min 0 min 0 W/m 18,8 km/h (3 Bft)
09.10.2014 22:28 14,2 C 12,2 C 89 % 1009,2 hPa 0,0 l/m 0 min 0 min 0 W/m 18,8 km/h (3 Bft)
09.10.2014 22:30 14,2 C 12,2 C 89 % 1009,2 hPa 0,0 l/m 0 min 0 min 0 W/m 12,6 km/h (3 Bft)
09.10.2014 22:32 14,2 C 12,2 C 89 % 1009,2 hPa 0,0 l/m 0 min 0 min 0 W/m 16,7 km/h (3 Bft)
09.10.2014 22:34 14,2 C 12,2 C 89 % 1009,3 hPa 0,0 l/m 0 min 0 min 0 W/m 23,0 km/h (4 Bft)
09.10.2014 22:36 14,2 C 12,2 C 89 % 1009,2 hPa 0,0 l/m 0 min 0 min 0 W/m 18,8 km/h (3 Bft)
09.10.2014 22:38 14,2 C 12,2 C 89 % 1009,2 hPa 0,0 l/m 0 min 0 min 0 W/m 16,7 km/h (3 Bft)
09.10.2014 22:40 14,2 C 12,2 C 89 % 1009,2 hPa 0,0 l/m 0 min 0 min 0 W/m 16,7 km/h (3 Bft)
09.10.2014 22:42 14,2 C 12,2 C 89 % 1009,1 hPa 0,0 l/m 0 min 0 min 0 W/m 16,7 km/h (3 Bft)
09.10.2014 22:44 14,1 C 12,2 C 89 % 1009,1 hPa 0,0 l/m 0 min 0 min 0 W/m 14,6 km/h (3 Bft)
09.10.2014 22:46 14,1 C 12,2 C 89 % 1009,2 hPa 0,0 l/m 0 min 0 min 0 W/m 14,6 km/h (3 Bft)
09.10.2014 22:48 14,1 C 12,2 C 89 % 1009,2 hPa 0,0 l/m 0 min 0 min 0 W/m 12,6 km/h (3 Bft)
09.10.2014 22:50 14,1 C 12,2 C 89 % 1009,3 hPa 0,0 l/m 0 min 0 min 0 W/m 10,5 km/h (2 Bft)
09.10.2014 22:52 14,0 C 12,2 C 89 % 1009,3 hPa 0,0 l/m 0 min 0 min 0 W/m 10,5 km/h (2 Bft)
09.10.2014 22:54 14,0 C 12,2 C 89 % 1009,3 hPa 0,0 l/m 0 min 0 min 0 W/m 16,7 km/h (3 Bft)
09.10.2014 22:56 14,0 C 12,2 C 89 % 1009,3 hPa 0,0 l/m 0 min 0 min 0 W/m 10,5 km/h (2 Bft)
09.10.2014 22:58 14,0 C 12,2 C 89 % 1009,4 hPa 0,0 l/m 0 min 0 min 0 W/m 18,8 km/h (3 Bft)
09.10.2014 23:00 14,0 C 12,2 C 89 % 1009,3 hPa 0,0 l/m 0 min 0 min 0 W/m 14,6 km/h (3 Bft)
09.10.2014 23:02 13,9 C 12,2 C 89 % 1009,4 hPa 0,0 l/m 0 min 0 min 0 W/m 12,6 km/h (3 Bft)
09.10.2014 23:04 13,9 C 12,2 C 89 % 1009,4 hPa 0,0 l/m 0 min 0 min 0 W/m 14,6 km/h (3 Bft)
09.10.2014 23:06 13,9 C 12,2 C 89 % 1009,4 hPa 0,0 l/m 0 min 0 min 0 W/m 12,6 km/h (3 Bft)
09.10.2014 23:08 13,9 C 12,2 C 89 % 1009,4 hPa 0,0 l/m 0 min 0 min 0 W/m 23,0 km/h (4 Bft)
09.10.2014 23:10 13,9 C 12,2 C 89 % 1009,4 hPa 0,0 l/m 0 min 0 min 0 W/m 14,6 km/h (3 Bft)
09.10.2014 23:12 13,9 C 12,2 C 89 % 1009,4 hPa 0,0 l/m 0 min 0 min 0 W/m 14,6 km/h (3 Bft)
09.10.2014 23:14 13,8 C 12,2 C 89 % 1009,4 hPa 0,0 l/m 0 min 0 min 0 W/m 16,7 km/h (3 Bft)
09.10.2014 23:16 13,8 C 12,2 C 89 % 1009,5 hPa 0,0 l/m 0 min 0 min 0 W/m 16,7 km/h (3 Bft)
09.10.2014 23:18 13,8 C 12,2 C 89 % 1009,4 hPa 0,0 l/m 0 min 0 min 0 W/m 16,7 km/h (3 Bft)
09.10.2014 23:20 13,8 C 12,2 C 89 % 1009,4 hPa 0,0 l/m 0 min 0 min 0 W/m 12,6 km/h (3 Bft)
09.10.2014 23:22 13,8 C 12,2 C 89 % 1009,4 hPa 0,0 l/m 0 min 0 min 0 W/m 16,7 km/h (3 Bft)
09.10.2014 23:24 13,8 C 12,2 C 89 % 1009,4 hPa 0,0 l/m 0 min 0 min 0 W/m 16,7 km/h (3 Bft)
09.10.2014 23:26 13,7 C 12,2 C 89 % 1009,4 hPa 0,0 l/m 0 min 0 min 0 W/m 14,6 km/h (3 Bft)
09.10.2014 23:28 13,7 C 12,2 C 89 % 1009,4 hPa 0,0 l/m 0 min 0 min 0 W/m 12,6 km/h (3 Bft)
09.10.2014 23:30 13,7 C 11,7 C 89 % 1009,5 hPa 0,0 l/m 0 min 0 min 0 W/m 14,6 km/h (3 Bft)
09.10.2014 23:32 13,7 C 11,7 C 89 % 1009,5 hPa 0,0 l/m 0 min 0 min 0 W/m 12,6 km/h (3 Bft)
09.10.2014 23:34 13,7 C 11,7 C 89 % 1009,5 hPa 0,0 l/m 0 min 0 min 0 W/m 12,6 km/h (3 Bft)
09.10.2014 23:36 13,7 C 11,7 C 89 % 1009,5 hPa 0,0 l/m 0 min 0 min 0 W/m 12,6 km/h (3 Bft)
09.10.2014 23:38 13,6 C 11,7 C 89 % 1009,5 hPa 0,0 l/m 0 min 0 min 0 W/m 16,7 km/h (3 Bft)
09.10.2014 23:40 13,6 C 11,7 C 89 % 1009,6 hPa 0,0 l/m 0 min 0 min 0 W/m 14,6 km/h (3 Bft)
09.10.2014 23:42 13,6 C 11,7 C 89 % 1009,6 hPa 0,0 l/m 0 min 0 min 0 W/m 10,5 km/h (2 Bft)
09.10.2014 23:44 13,6 C 11,7 C 89 % 1009,6 hPa 0,0 l/m 0 min 0 min 0 W/m 16,7 km/h (3 Bft)
09.10.2014 23:46 13,6 C 11,7 C 89 % 1009,7 hPa 0,0 l/m 0 min 0 min 0 W/m 16,7 km/h (3 Bft)
09.10.2014 23:48 13,6 C 11,7 C 89 % 1009,6 hPa 0,0 l/m 0 min 0 min 0 W/m 14,6 km/h (3 Bft)
09.10.2014 23:50 13,5 C 11,7 C 89 % 1009,7 hPa 0,0 l/m 0 min 0 min 0 W/m 14,6 km/h (3 Bft)
09.10.2014 23:52 13,5 C 11,7 C 89 % 1009,7 hPa 0,0 l/m 0 min 0 min 0 W/m 18,8 km/h (3 Bft)
09.10.2014 23:54 13,5 C 11,7 C 89 % 1009,6 hPa 0,0 l/m 0 min 0 min 0 W/m 14,6 km/h (3 Bft)
09.10.2014 23:56 13,5 C 11,7 C 89 % 1009,6 hPa 0,0 l/m 0 min 0 min 0 W/m 12,6 km/h (3 Bft)
09.10.2014 23:58 13,4 C 11,7 C 89 % 1009,7 hPa 0,0 l/m 0 min 0 min 0 W/m 14,6 km/h (3 Bft)
_ Min-Zeit 23:56 23:30 15:08 01:06 - - - - 02:24
Minimum _ 13,4 C 11,7 C 81 % 1000,6 hPa - - - - 6,3 km/h (2 Bft)
_ Max-Zeit 16:34 14:48 03:48 23:46 00:05 08:36 00:00 17:20 03:48
Maximum _ 17,5 C 16,1 C 99 % 1009,7 hPa 0,2 l/m 2 min 2 min 211 W/m 37,7 km/h
SW (5 Bft)
Durchschnitt _ 15,8 C 14,1 C 91 % 1005,0 hPa #1,8 l/m #1:52 h #1:47 h 106 W/m 14,6 km/h (3 Bft)
© 2014 W. Hausmann